Time,TemperatureF,DewpointF,PressureIn,WindDirection,WindDirectionDegrees,WindSpeedMPH,WindSpeedGustMPH,Humidity,HourlyPrecipIn,Conditions,Clouds,dailyrainin,SoftwareType,DateUTC
2013-06-11 00:00:00,61.5,25.4,0.00,East,85,2.7,2.7,25,0.00,,---,0.00,VWS V14.00,2013-06-11 06:00:00,
2013-06-11 00:04:00,61.3,25.2,0.00,ESE,110,0.0,0.0,25,0.00,,---,0.00,VWS V14.00,2013-06-11 06:04:00,
2013-06-11 00:05:00,61.3,25.2,0.00,ESE,110,0.0,0.0,25,0.00,,---,0.00,VWS V14.00,2013-06-11 06:05:00,
2013-06-11 00:10:00,61.3,25.2,0.00,SSE,150,2.7,4.0,25,0.00,,---,0.00,VWS V14.00,2013-06-11 06:10:00,
2013-06-11 00:11:00,61.3,25.2,0.00,South,180,0.0,3.6,25,0.00,,---,0.00,VWS V14.00,2013-06-11 06:11:00,
2013-06-11 00:15:00,61.2,25.1,0.00,SSE,156,2.7,3.6,25,0.00,,---,0.00,VWS V14.00,2013-06-11 06:15:00,
2013-06-11 00:16:00,61.2,25.1,0.00,ENE,67,4.0,4.0,25,0.00,,---,0.00,VWS V14.00,2013-06-11 06:16:00,
2013-06-11 00:20:00,61.0,24.9,0.00,SE,135,2.7,3.6,25,0.00,,---,0.00,VWS V14.00,2013-06-11 06:20:00,
2013-06-11 00:21:00,61.0,24.9,0.00,SE,140,0.0,0.0,25,0.00,,---,0.00,VWS V14.00,2013-06-11 06:21:00,
2013-06-11 00:25:00,61.0,24.9,0.00,ESE,118,2.7,8.1,25,0.00,,---,0.00,VWS V14.00,2013-06-11 06:25:00,
2013-06-11 00:26:00,61.0,24.9,0.00,ESE,118,0.0,2.7,25,0.00,,---,0.00,VWS V14.00,2013-06-11 06:26:00,
2013-06-11 00:30:00,61.0,24.9,0.00,ESE,102,2.2,2.2,25,0.00,,---,0.00,VWS V14.00,2013-06-11 06:30:00,
2013-06-11 00:31:00,61.0,24.9,0.00,ESE,102,2.2,2.2,25,0.00,,---,0.00,VWS V14.00,2013-06-11 06:31:00,
2013-06-11 00:35:00,60.8,24.8,0.00,ESE,111,0.0,0.0,25,0.00,,---,0.00,VWS V14.00,2013-06-11 06:35:00,
2013-06-11 00:36:00,60.8,24.8,0.00,ESE,114,2.7,2.7,25,0.00,,---,0.00,VWS V14.00,2013-06-11 06:36:00,
2013-06-11 00:40:00,60.8,24.8,0.00,SE,140,2.7,3.1,25,0.00,,---,0.00,VWS V14.00,2013-06-11 06:40:00,
2013-06-11 00:41:00,60.8,24.8,0.00,SE,131,4.0,4.0,25,0.00,,---,0.00,VWS V14.00,2013-06-11 06:41:00,
2013-06-11 00:42:00,60.6,24.6,0.00,ESE,120,0.0,3.1,25,0.00,,---,0.00,VWS V14.00,2013-06-11 06:42:00,
2013-06-11 00:45:00,60.6,24.6,0.00,SE,140,3.1,5.4,25,0.00,,---,0.00,VWS V14.00,2013-06-11 06:45:00,
2013-06-11 00:46:00,60.6,24.6,0.00,East,101,3.1,5.4,25,0.00,,---,0.00,VWS V14.00,2013-06-11 06:46:00,
2013-06-11 00:47:00,60.6,24.6,0.00,SE,145,0.0,2.7,25,0.00,,---,0.00,VWS V14.00,2013-06-11 06:47:00,
2013-06-11 00:51:00,60.6,24.6,0.00,SSE,153,2.7,5.4,25,0.00,,---,0.00,VWS V14.00,2013-06-11 06:51:00,
2013-06-11 00:52:00,60.6,24.6,0.00,SSW,194,0.0,0.0,25,0.00,,---,0.00,VWS V14.00,2013-06-11 06:52:00,
2013-06-11 00:56:00,60.6,24.6,0.00,South,191,0.0,2.2,25,0.00,,---,0.00,VWS V14.00,2013-06-11 06:56:00,
2013-06-11 00:57:00,60.6,24.6,0.00,SSW,197,0.0,0.0,25,0.00,,---,0.00,VWS V14.00,2013-06-11 06:57:00,
2013-06-11 00:58:00,60.6,24.6,0.00,SSW,201,0.0,0.0,25,0.00,,---,0.00,VWS V14.00,2013-06-11 06:58:00,
2013-06-11 01:01:00,60.6,24.6,0.00,ESE,117,0.0,2.7,25,0.00,,---,0.00,VWS V14.00,2013-06-11 07:01:00,
2013-06-11 01:02:00,60.6,24.6,0.00,East,84,2.7,2.7,25,0.00,,---,0.00,VWS V14.00,2013-06-11 07:02:00,
2013-06-11 01:03:00,60.6,24.6,0.00,ENE,77,4.5,4.5,25,0.00,,---,0.00,VWS V14.00,2013-06-11 07:03:00,
2013-06-11 01:06:00,60.4,24.5,0.00,SE,126,0.0,0.0,25,0.00,,---,0.00,VWS V14.00,2013-06-11 07:06:00,
2013-06-11 01:07:00,60.4,24.5,0.00,SE,125,0.0,0.0,25,0.00,,---,0.00,VWS V14.00,2013-06-11 07:07:00,
2013-06-11 01:08:00,60.4,24.5,0.00,SSW,205,0.0,3.6,25,0.00,,---,0.00,VWS V14.00,2013-06-11 07:08:00,
2013-06-11 01:12:00,60.4,24.5,0.00,East,100,2.7,2.7,25,0.00,,---,0.00,VWS V14.00,2013-06-11 07:12:00,
2013-06-11 01:13:00,60.4,24.5,0.00,ESE,116,2.7,2.7,25,0.00,,---,0.00,VWS V14.00,2013-06-11 07:13:00,
2013-06-11 01:17:00,60.4,24.5,0.00,SE,128,0.0,3.1,25,0.00,,---,0.00,VWS V14.00,2013-06-11 07:17:00,
2013-06-11 01:18:00,60.4,24.5,0.00,SE,131,2.7,3.1,25,0.00,,---,0.00,VWS V14.00,2013-06-11 07:18:00,
2013-06-11 01:22:00,60.4,24.5,0.00,SE,124,2.7,2.7,25,0.00,,---,0.00,VWS V14.00,2013-06-11 07:22:00,
2013-06-11 01:23:00,60.4,24.5,0.00,SSE,157,2.2,3.6,25,0.00,,---,0.00,VWS V14.00,2013-06-11 07:23:00,
2013-06-11 01:27:00,60.3,24.3,0.00,ESE,121,0.0,2.7,25,0.00,,---,0.00,VWS V14.00,2013-06-11 07:27:00,
2013-06-11 01:28:00,60.3,24.3,0.00,ESE,122,2.7,2.7,25,0.00,,---,0.00,VWS V14.00,2013-06-11 07:28:00,
2013-06-11 01:32:00,60.3,24.3,0.00,SSE,147,2.7,2.7,25,0.00,,---,0.00,VWS V14.00,2013-06-11 07:32:00,
2013-06-11 01:33:00,60.3,24.3,0.00,South,184,0.0,2.7,25,0.00,,---,0.00,VWS V14.00,2013-06-11 07:33:00,
2013-06-11 01:37:00,60.3,24.3,0.00,ESE,120,2.2,3.6,25,0.00,,---,0.00,VWS V14.00,2013-06-11 07:37:00,
2013-06-11 01:38:00,60.3,24.3,0.00,ENE,72,2.7,4.0,25,0.00,,---,0.00,VWS V14.00,2013-06-11 07:38:00,
2013-06-11 01:42:00,60.1,24.2,0.00,SE,125,3.1,3.1,25,0.00,,---,0.00,VWS V14.00,2013-06-11 07:42:00,
2013-06-11 01:43:00,60.1,24.2,0.00,SE,139,0.0,3.1,25,0.00,,---,0.00,VWS V14.00,2013-06-11 07:43:00,
2013-06-11 01:47:00,60.1,24.2,0.00,SE,126,0.0,0.0,25,0.00,,---,0.00,VWS V14.00,2013-06-11 07:47:00,
2013-06-11 01:48:00,60.1,24.2,0.00,SSE,167,0.0,0.0,25,0.00,,---,0.00,VWS V14.00,2013-06-11 07:48:00,
2013-06-11 01:52:00,59.9,24.0,0.00,SSW,200,0.0,0.0,25,0.00,,---,0.00,VWS V14.00,2013-06-11 07:52:00,
2013-06-11 01:53:00,59.9,24.0,0.00,SSW,200,0.0,0.0,25,0.00,,---,0.00,VWS V14.00,2013-06-11 07:53:00,
2013-06-11 01:58:00,59.9,24.0,0.00,East,81,3.1,3.6,25,0.00,,---,0.00,VWS V14.00,2013-06-11 07:58:00,
2013-06-11 01:59:00,59.7,23.9,0.00,East,93,3.6,3.6,25,0.00,,---,0.00,VWS V14.00,2013-06-11 07:59:00,
2013-06-11 02:03:00,59.7,23.9,0.00,SE,140,0.0,0.0,25,0.00,,---,0.00,VWS V14.00,2013-06-11 08:03:00,
2013-06-11 02:04:00,59.7,23.9,0.00,East,82,0.0,4.9,25,0.00,,---,0.00,VWS V14.00,2013-06-11 08:04:00,
2013-06-11 02:08:00,59.7,23.9,0.00,SE,140,3.6,3.6,25,0.00,,---,0.00,VWS V14.00,2013-06-11 08:08:00,
2013-06-11 02:09:00,59.7,23.9,0.00,SE,141,2.7,4.9,25,0.00,,---,0.00,VWS V14.00,2013-06-11 08:09:00,
2013-06-11 02:13:00,59.5,23.7,0.00,SE,124,2.7,3.1,25,0.00,,---,0.00,VWS V14.00,2013-06-11 08:13:00,
2013-06-11 02:14:00,59.5,23.7,0.00,ESE,109,4.9,4.9,25,0.00,,---,0.00,VWS V14.00,2013-06-11 08:14:00,
2013-06-11 02:18:00,59.5,23.7,0.00,South,191,2.2,4.0,25,0.00,,---,0.00,VWS V14.00,2013-06-11 08:18:00,
2013-06-11 02:19:00,59.5,23.7,0.00,ESE,119,4.9,5.8,25,0.00,,---,0.00,VWS V14.00,2013-06-11 08:19:00,
2013-06-11 02:20:00,59.5,23.7,0.00,SE,143,0.0,2.2,25,0.00,,---,0.00,VWS V14.00,2013-06-11 08:20:00,
2013-06-11 02:23:00,59.4,23.6,0.00,SSE,151,0.0,3.1,25,0.00,,---,0.00,VWS V14.00,2013-06-11 08:23:00,
2013-06-11 02:24:00,59.4,23.6,0.00,SW,225,0.0,3.1,25,0.00,,---,0.00,VWS V14.00,2013-06-11 08:24:00,
2013-06-11 02:25:00,59.4,23.6,0.00,South,169,0.0,0.0,25,0.00,,---,0.00,VWS V14.00,2013-06-11 08:25:00,
2013-06-11 02:28:00,59.4,23.6,0.00,ESE,112,4.0,4.0,25,0.00,,---,0.00,VWS V14.00,2013-06-11 08:28:00,
2013-06-11 02:29:00,59.4,23.6,0.00,ESE,120,4.9,4.9,25,0.00,,---,0.00,VWS V14.00,2013-06-11 08:29:00,
2013-06-11 02:30:00,59.4,23.6,0.00,SSE,156,0.0,4.9,25,0.00,,---,0.00,VWS V14.00,2013-06-11 08:30:00,
2013-06-11 02:33:00,59.4,23.6,0.00,SSE,158,0.0,0.0,25,0.00,,---,0.00,VWS V14.00,2013-06-11 08:33:00,
2013-06-11 02:34:00,59.4,23.6,0.00,SSE,165,0.0,0.0,25,0.00,,---,0.00,VWS V14.00,2013-06-11 08:34:00,
2013-06-11 02:35:00,59.4,23.6,0.00,SSE,159,4.0,4.0,25,0.00,,---,0.00,VWS V14.00,2013-06-11 08:35:00,
2013-06-11 02:38:00,59.4,23.6,0.00,SW,225,0.0,3.1,25,0.00,,---,0.00,VWS V14.00,2013-06-11 08:38:00,
2013-06-11 02:39:00,59.2,23.4,0.00,South,173,0.0,3.1,25,0.00,,---,0.00,VWS V14.00,2013-06-11 08:39:00,
2013-06-11 02:40:00,59.2,23.4,0.00,West,264,0.0,0.0,25,0.00,,---,0.00,VWS V14.00,2013-06-11 08:40:00,
2013-06-11 02:41:00,59.2,23.4,0.00,East,98,2.7,4.9,25,0.00,,---,0.00,VWS V14.00,2013-06-11 08:41:00,
2013-06-11 02:43:00,59.2,23.4,0.00,ESE,118,0.0,0.0,25,0.00,,---,0.00,VWS V14.00,2013-06-11 08:43:00,
2013-06-11 02:44:00,59.2,23.4,0.00,East,79,0.0,2.2,25,0.00,,---,0.00,VWS V14.00,2013-06-11 08:44:00,
2013-06-11 02:45:00,59.2,23.4,0.00,ESE,122,3.6,3.6,25,0.00,,---,0.00,VWS V14.00,2013-06-11 08:45:00,
2013-06-11 02:47:00,59.2,23.4,0.00,SSE,162,0.0,2.2,25,0.00,,---,0.00,VWS V14.00,2013-06-11 08:47:00,
2013-06-11 02:49:00,59.2,23.4,0.00,East,96,0.0,2.7,25,0.00,,---,0.00,VWS V14.00,2013-06-11 08:49:00,
2013-06-11 02:50:00,59.2,23.4,0.00,SE,133,0.0,0.0,25,0.00,,---,0.00,VWS V14.00,2013-06-11 08:50:00,
2013-06-11 02:52:00,59.0,23.2,0.00,SSE,167,0.0,0.0,25,0.00,,---,0.00,VWS V14.00,2013-06-11 08:52:00,
2013-06-11 02:54:00,59.0,23.2,0.00,ESE,113,0.0,2.7,25,0.00,,---,0.00,VWS V14.00,2013-06-11 08:54:00,
2013-06-11 02:55:00,59.0,23.2,0.00,SE,124,3.6,3.6,25,0.00,,---,0.00,VWS V14.00,2013-06-11 08:55:00,
2013-06-11 02:58:00,59.0,23.2,0.00,South,189,0.0,2.7,25,0.00,,---,0.00,VWS V14.00,2013-06-11 08:58:00,
2013-06-11 02:59:00,59.0,23.2,0.00,East,91,2.7,3.1,25,0.00,,---,0.00,VWS V14.00,2013-06-11 08:59:00,
2013-06-11 03:00:00,58.8,24.0,0.00,ENE,78,2.2,2.7,26,0.00,,---,0.00,VWS V14.00,2013-06-11 09:00:00,
2013-06-11 03:03:00,58.8,24.0,0.00,SE,139,0.0,0.0,26,0.00,,---,0.00,VWS V14.00,2013-06-11 09:03:00,
2013-06-11 03:04:00,58.8,24.0,0.00,ENE,57,3.1,3.1,26,0.00,,---,0.00,VWS V14.00,2013-06-11 09:04:00,
2013-06-11 03:05:00,58.8,24.0,0.00,ESE,102,0.0,3.1,26,0.00,,---,0.00,VWS V14.00,2013-06-11 09:05:00,
2013-06-11 03:06:00,58.8,24.0,0.00,ESE,102,0.0,3.1,26,0.00,,---,0.00,VWS V14.00,2013-06-11 09:06:00,
2013-06-11 03:08:00,58.8,24.0,0.00,SSE,163,2.2,3.6,26,0.00,,---,0.00,VWS V14.00,2013-06-11 09:08:00,
2013-06-11 03:09:00,58.8,24.0,0.00,SE,140,0.0,0.0,26,0.00,,---,0.00,VWS V14.00,2013-06-11 09:09:00,
2013-06-11 03:10:00,58.8,24.0,0.00,East,85,3.6,3.6,26,0.00,,---,0.00,VWS V14.00,2013-06-11 09:10:00,
2013-06-11 03:11:00,58.6,23.9,0.00,ESE,107,0.0,0.0,26,0.00,,---,0.00,VWS V14.00,2013-06-11 09:11:00,
2013-06-11 03:13:00,58.6,23.9,0.00,SE,140,3.1,3.1,26,0.00,,---,0.00,VWS V14.00,2013-06-11 09:13:00,
2013-06-11 03:14:00,58.6,23.9,0.00,SE,127,3.6,3.6,26,0.00,,---,0.00,VWS V14.00,2013-06-11 09:14:00,
2013-06-11 03:15:00,58.6,23.9,0.00,ESE,118,2.7,3.6,26,0.00,,---,0.00,VWS V14.00,2013-06-11 09:15:00,
2013-06-11 03:16:00,58.6,23.9,0.00,SE,129,4.9,4.9,26,0.00,,---,0.00,VWS V14.00,2013-06-11 09:16:00,
2013-06-11 03:18:00,58.6,23.9,0.00,South,187,0.0,3.1,26,0.00,,---,0.00,VWS V14.00,2013-06-11 09:18:00,
2013-06-11 03:20:00,58.6,23.9,0.00,East,89,2.2,5.4,26,0.00,,---,0.00,VWS V14.00,2013-06-11 09:20:00,
2013-06-11 03:21:00,58.5,23.7,0.00,ESE,118,0.0,2.7,26,0.00,,---,0.00,VWS V14.00,2013-06-11 09:21:00,
2013-06-11 03:22:00,58.5,23.7,0.00,ESE,104,2.7,2.7,26,0.00,,---,0.00,VWS V14.00,2013-06-11 09:22:00,
2013-06-11 03:23:00,58.5,23.7,0.00,SSW,202,2.7,4.0,26,0.00,,---,0.00,VWS V14.00,2013-06-11 09:23:00,
2013-06-11 03:25:00,58.5,23.7,0.00,ESE,105,0.0,0.0,26,0.00,,---,0.00,VWS V14.00,2013-06-11 09:25:00,
2013-06-11 03:26:00,58.5,23.7,0.00,ESE,106,0.0,0.0,26,0.00,,---,0.00,VWS V14.00,2013-06-11 09:26:00,
2013-06-11 03:27:00,58.5,23.7,0.00,ESE,105,0.0,0.0,26,0.00,,---,0.00,VWS V14.00,2013-06-11 09:27:00,
2013-06-11 03:28:00,58.5,23.7,0.00,ESE,105,0.0,0.0,26,0.00,,---,0.00,VWS V14.00,2013-06-11 09:28:00,
2013-06-11 03:30:00,58.5,23.7,0.00,ESE,106,0.0,0.0,26,0.00,,---,0.00,VWS V14.00,2013-06-11 09:30:00,
2013-06-11 03:31:00,58.5,23.7,0.00,ESE,106,0.0,0.0,26,0.00,,---,0.00,VWS V14.00,2013-06-11 09:31:00,
2013-06-11 03:32:00,58.3,23.6,0.00,ESE,106,0.0,0.0,26,0.00,,---,0.00,VWS V14.00,2013-06-11 09:32:00,
2013-06-11 03:33:00,58.3,23.6,0.00,SSW,196,0.0,0.0,26,0.00,,---,0.00,VWS V14.00,2013-06-11 09:33:00,
2013-06-11 03:35:00,58.3,23.6,0.00,SSW,196,0.0,0.0,26,0.00,,---,0.00,VWS V14.00,2013-06-11 09:35:00,
2013-06-11 03:36:00,58.3,23.6,0.00,SSW,196,0.0,0.0,26,0.00,,---,0.00,VWS V14.00,2013-06-11 09:36:00,
2013-06-11 03:37:00,58.3,23.6,0.00,SSW,196,0.0,0.0,26,0.00,,---,0.00,VWS V14.00,2013-06-11 09:37:00,
2013-06-11 03:38:00,58.1,23.4,0.00,SSW,196,0.0,0.0,26,0.00,,---,0.00,VWS V14.00,2013-06-11 09:38:00,
2013-06-11 03:40:00,58.1,23.4,0.00,East,98,0.0,0.0,26,0.00,,---,0.00,VWS V14.00,2013-06-11 09:40:00,
2013-06-11 03:41:00,58.1,23.4,0.00,East,84,0.0,2.2,26,0.00,,---,0.00,VWS V14.00,2013-06-11 09:41:00,
2013-06-11 03:42:00,58.1,23.4,0.00,East,84,0.0,0.0,26,0.00,,---,0.00,VWS V14.00,2013-06-11 09:42:00,
2013-06-11 03:43:00,58.1,23.4,0.00,East,92,0.0,0.0,26,0.00,,---,0.00,VWS V14.00,2013-06-11 09:43:00,
2013-06-11 03:46:00,57.9,23.3,0.00,East,92,0.0,0.0,26,0.00,,---,0.00,VWS V14.00,2013-06-11 09:46:00,
2013-06-11 03:47:00,57.9,23.3,0.00,East,92,0.0,0.0,26,0.00,,---,0.00,VWS V14.00,2013-06-11 09:47:00,
2013-06-11 03:49:00,57.9,23.3,0.00,ENE,63,2.2,2.2,26,0.00,,---,0.00,VWS V14.00,2013-06-11 09:49:00,
2013-06-11 03:51:00,57.9,23.3,0.00,ESE,112,0.0,0.0,26,0.00,,---,0.00,VWS V14.00,2013-06-11 09:51:00,
2013-06-11 03:52:00,57.9,23.3,0.00,ESE,112,0.0,0.0,26,0.00,,---,0.00,VWS V14.00,2013-06-11 09:52:00,
2013-06-11 03:53:00,57.9,23.3,0.00,ESE,112,0.0,0.0,26,0.00,,---,0.00,VWS V14.00,2013-06-11 09:53:00,
2013-06-11 03:54:00,57.7,23.1,0.00,ESE,112,0.0,0.0,26,0.00,,---,0.00,VWS V14.00,2013-06-11 09:54:00,
2013-06-11 03:56:00,57.7,23.1,0.00,ESE,110,0.0,0.0,26,0.00,,---,0.00,VWS V14.00,2013-06-11 09:56:00,
2013-06-11 03:57:00,57.7,23.1,0.00,ESE,112,0.0,0.0,26,0.00,,---,0.00,VWS V14.00,2013-06-11 09:57:00,
2013-06-11 03:58:00,57.7,23.1,0.00,ESE,118,0.0,0.0,26,0.00,,---,0.00,VWS V14.00,2013-06-11 09:58:00,
2013-06-11 03:59:00,57.7,23.1,0.00,SE,141,0.0,0.0,26,0.00,,---,0.00,VWS V14.00,2013-06-11 09:59:00,
2013-06-11 04:01:00,57.6,23.0,0.00,SE,141,0.0,0.0,26,0.00,,---,0.00,VWS V14.00,2013-06-11 10:01:00,
2013-06-11 04:02:00,57.6,23.0,0.00,SE,138,0.0,0.0,26,0.00,,---,0.00,VWS V14.00,2013-06-11 10:02:00,
2013-06-11 04:03:00,57.6,23.0,0.00,SE,141,0.0,0.0,26,0.00,,---,0.00,VWS V14.00,2013-06-11 10:03:00,
2013-06-11 04:04:00,57.6,23.0,0.00,SE,141,0.0,0.0,26,0.00,,---,0.00,VWS V14.00,2013-06-11 10:04:00,
2013-06-11 04:06:00,57.6,23.0,0.00,SE,141,0.0,0.0,26,0.00,,---,0.00,VWS V14.00,2013-06-11 10:06:00,
2013-06-11 04:07:00,57.6,23.0,0.00,SE,138,0.0,0.0,26,0.00,,---,0.00,VWS V14.00,2013-06-11 10:07:00,
2013-06-11 04:08:00,57.4,22.8,0.00,SE,141,0.0,0.0,26,0.00,,---,0.00,VWS V14.00,2013-06-11 10:08:00,
2013-06-11 04:09:00,57.4,22.8,0.00,SE,142,0.0,0.0,26,0.00,,---,0.00,VWS V14.00,2013-06-11 10:09:00,
2013-06-11 04:12:00,57.4,22.8,0.00,SE,142,0.0,0.0,26,0.00,,---,0.00,VWS V14.00,2013-06-11 10:12:00,
2013-06-11 04:13:00,57.2,22.6,0.00,SE,142,0.0,0.0,26,0.00,,---,0.00,VWS V14.00,2013-06-11 10:13:00,
2013-06-11 04:14:00,57.2,22.6,0.00,SE,142,0.0,0.0,26,0.00,,---,0.00,VWS V14.00,2013-06-11 10:14:00,
2013-06-11 04:17:00,57.2,22.6,0.00,SE,142,0.0,0.0,26,0.00,,---,0.00,VWS V14.00,2013-06-11 10:17:00,
2013-06-11 04:18:00,57.2,22.6,0.00,ESE,112,2.2,2.2,26,0.00,,---,0.00,VWS V14.00,2013-06-11 10:18:00,
2013-06-11 04:20:00,57.2,22.6,0.00,SE,131,0.0,0.0,26,0.00,,---,0.00,VWS V14.00,2013-06-11 10:20:00,
2013-06-11 04:22:00,57.0,22.5,0.00,SSW,206,0.0,0.0,26,0.00,,---,0.00,VWS V14.00,2013-06-11 10:22:00,
2013-06-11 04:23:00,57.0,22.5,0.00,SSW,200,0.0,0.0,26,0.00,,---,0.00,VWS V14.00,2013-06-11 10:23:00,
2013-06-11 04:25:00,57.0,22.5,0.00,West,266,0.0,0.0,26,0.00,,---,0.00,VWS V14.00,2013-06-11 10:25:00,
2013-06-11 04:27:00,56.8,22.3,0.00,West,267,0.0,0.0,26,0.00,,---,0.00,VWS V14.00,2013-06-11 10:27:00,
2013-06-11 04:28:00,56.8,22.3,0.00,West,267,0.0,0.0,26,0.00,,---,0.00,VWS V14.00,2013-06-11 10:28:00,
2013-06-11 04:30:00,56.8,22.3,0.00,WSW,258,0.0,0.0,26,0.00,,---,0.00,VWS V14.00,2013-06-11 10:30:00,
2013-06-11 04:32:00,56.8,22.3,0.00,WSW,257,0.0,0.0,26,0.00,,---,0.00,VWS V14.00,2013-06-11 10:32:00,
2013-06-11 04:33:00,56.8,22.3,0.00,WSW,244,0.0,0.0,26,0.00,,---,0.00,VWS V14.00,2013-06-11 10:33:00,
2013-06-11 04:35:00,56.8,22.3,0.00,SSE,163,0.0,0.0,26,0.00,,---,0.00,VWS V14.00,2013-06-11 10:35:00,
2013-06-11 04:37:00,56.7,22.2,0.00,SE,132,0.0,0.0,26,0.00,,---,0.00,VWS V14.00,2013-06-11 10:37:00,
2013-06-11 04:38:00,56.7,22.2,0.00,SE,132,0.0,0.0,26,0.00,,---,0.00,VWS V14.00,2013-06-11 10:38:00,
2013-06-11 04:40:00,56.7,22.2,0.00,SE,139,0.0,0.0,26,0.00,,---,0.00,VWS V14.00,2013-06-11 10:40:00,
2013-06-11 04:42:00,56.7,22.2,0.00,SE,139,0.0,0.0,26,0.00,,---,0.00,VWS V14.00,2013-06-11 10:42:00,
2013-06-11 04:43:00,56.7,22.2,0.00,SE,135,0.0,0.0,26,0.00,,---,0.00,VWS V14.00,2013-06-11 10:43:00,
2013-06-11 04:44:00,56.7,22.2,0.00,SE,135,0.0,0.0,26,0.00,,---,0.00,VWS V14.00,2013-06-11 10:44:00,
2013-06-11 04:45:00,56.7,22.2,0.00,SE,137,0.0,0.0,26,0.00,,---,0.00,VWS V14.00,2013-06-11 10:45:00,
2013-06-11 04:47:00,56.5,22.0,0.00,SE,139,0.0,0.0,26,0.00,,---,0.00,VWS V14.00,2013-06-11 10:47:00,
2013-06-11 04:48:00,56.5,22.0,0.00,South,172,0.0,0.0,26,0.00,,---,0.00,VWS V14.00,2013-06-11 10:48:00,
2013-06-11 04:49:00,56.5,22.0,0.00,SSE,168,0.0,0.0,26,0.00,,---,0.00,VWS V14.00,2013-06-11 10:49:00,
2013-06-11 04:50:00,56.5,22.0,0.00,SSE,168,0.0,0.0,26,0.00,,---,0.00,VWS V14.00,2013-06-11 10:50:00,
2013-06-11 04:52:00,56.5,22.0,0.00,SSW,206,0.0,0.0,26,0.00,,---,0.00,VWS V14.00,2013-06-11 10:52:00,
2013-06-11 04:53:00,56.3,21.9,0.00,SSW,206,0.0,0.0,26,0.00,,---,0.00,VWS V14.00,2013-06-11 10:53:00,
2013-06-11 04:54:00,56.3,21.9,0.00,SSW,200,0.0,0.0,26,0.00,,---,0.00,VWS V14.00,2013-06-11 10:54:00,
2013-06-11 04:56:00,56.3,21.9,0.00,East,101,3.1,3.1,26,0.00,,---,0.00,VWS V14.00,2013-06-11 10:56:00,
2013-06-11 04:57:00,56.3,21.9,0.00,SE,125,2.7,2.7,26,0.00,,---,0.00,VWS V14.00,2013-06-11 10:57:00,
2013-06-11 04:58:00,56.3,21.9,0.00,SE,124,2.2,2.7,26,0.00,,---,0.00,VWS V14.00,2013-06-11 10:58:00,
2013-06-11 04:59:00,56.3,21.9,0.00,SE,141,0.0,2.7,26,0.00,,---,0.00,VWS V14.00,2013-06-11 10:59:00,
2013-06-11 05:01:00,56.3,21.9,0.00,ESE,104,2.7,3.1,26,0.00,,---,0.00,VWS V14.00,2013-06-11 11:01:00,
2013-06-11 05:02:00,56.3,21.9,0.00,ESE,116,0.0,0.0,26,0.00,,---,0.00,VWS V14.00,2013-06-11 11:02:00,
2013-06-11 05:03:00,56.3,21.9,0.00,ESE,116,0.0,0.0,26,0.00,,---,0.00,VWS V14.00,2013-06-11 11:03:00,
2013-06-11 05:04:00,56.1,21.7,0.00,SE,143,0.0,0.0,26,0.00,,---,0.00,VWS V14.00,2013-06-11 11:04:00,
2013-06-11 05:06:00,56.1,21.7,0.00,South,170,0.0,0.0,26,0.00,,---,0.00,VWS V14.00,2013-06-11 11:06:00,
2013-06-11 05:08:00,56.1,21.7,0.00,SSE,166,0.0,0.0,26,0.00,,---,0.00,VWS V14.00,2013-06-11 11:08:00,
2013-06-11 05:09:00,56.1,21.7,0.00,SSE,167,0.0,0.0,26,0.00,,---,0.00,VWS V14.00,2013-06-11 11:09:00,
2013-06-11 05:11:00,56.1,21.7,0.00,SSE,157,0.0,0.0,26,0.00,,---,0.00,VWS V14.00,2013-06-11 11:11:00,
2013-06-11 05:13:00,55.9,21.6,0.00,SSE,157,0.0,0.0,26,0.00,,---,0.00,VWS V14.00,2013-06-11 11:13:00,
2013-06-11 05:14:00,55.9,21.6,0.00,SSE,158,0.0,0.0,26,0.00,,---,0.00,VWS V14.00,2013-06-11 11:14:00,
2013-06-11 05:16:00,55.9,21.6,0.00,SSE,158,0.0,0.0,26,0.00,,---,0.00,VWS V14.00,2013-06-11 11:16:00,
2013-06-11 05:18:00,55.8,21.4,0.00,SSW,205,0.0,0.0,26,0.00,,---,0.00,VWS V14.00,2013-06-11 11:18:00,
2013-06-11 05:19:00,55.8,21.4,0.00,SSW,199,0.0,0.0,26,0.00,,---,0.00,VWS V14.00,2013-06-11 11:19:00,
2013-06-11 05:21:00,55.8,21.4,0.00,SSW,207,0.0,0.0,26,0.00,,---,0.00,VWS V14.00,2013-06-11 11:21:00,
2013-06-11 05:23:00,55.8,20.5,0.00,SSW,207,0.0,0.0,25,0.00,,---,0.00,VWS V14.00,2013-06-11 11:23:00,
2013-06-11 05:24:00,55.8,20.5,0.00,South,189,0.0,0.0,25,0.00,,---,0.00,VWS V14.00,2013-06-11 11:24:00,
2013-06-11 05:26:00,55.8,20.5,0.00,South,184,0.0,0.0,25,0.00,,---,0.00,VWS V14.00,2013-06-11 11:26:00,
2013-06-11 05:28:00,55.6,20.3,0.00,South,183,0.0,0.0,25,0.00,,---,0.00,VWS V14.00,2013-06-11 11:28:00,
2013-06-11 05:29:00,55.6,20.3,0.00,SE,124,0.0,0.0,25,0.00,,---,0.00,VWS V14.00,2013-06-11 11:29:00,
2013-06-11 05:31:00,55.6,20.3,0.00,SSE,150,0.0,0.0,25,0.00,,---,0.00,VWS V14.00,2013-06-11 11:31:00,
2013-06-11 05:33:00,55.6,20.3,0.00,ENE,75,0.0,0.0,25,0.00,,---,0.00,VWS V14.00,2013-06-11 11:33:00,
2013-06-11 05:34:00,55.6,20.3,0.00,ENE,76,0.0,0.0,25,0.00,,---,0.00,VWS V14.00,2013-06-11 11:34:00,
2013-06-11 05:36:00,55.6,20.3,0.00,ENE,76,0.0,0.0,25,0.00,,---,0.00,VWS V14.00,2013-06-11 11:36:00,
2013-06-11 05:38:00,55.4,20.2,0.00,ESE,116,0.0,4.9,25,0.00,,---,0.00,VWS V14.00,2013-06-11 11:38:00,
2013-06-11 05:39:00,55.4,20.2,0.00,ESE,117,0.0,0.0,25,0.00,,---,0.00,VWS V14.00,2013-06-11 11:39:00,
2013-06-11 05:40:00,55.4,20.2,0.00,SE,125,2.7,2.7,25,0.00,,---,0.00,VWS V14.00,2013-06-11 11:40:00,
2013-06-11 05:41:00,55.4,20.2,0.00,SSW,211,0.0,0.0,25,0.00,,---,0.00,VWS V14.00,2013-06-11 11:41:00,
2013-06-11 05:43:00,55.4,20.2,0.00,East,93,3.1,3.1,25,0.00,,---,0.00,VWS V14.00,2013-06-11 11:43:00,
2013-06-11 05:44:00,55.4,20.2,0.00,East,93,0.0,3.6,25,0.00,,---,0.00,VWS V14.00,2013-06-11 11:44:00,
2013-06-11 05:45:00,55.4,20.2,0.00,East,101,0.0,0.0,25,0.00,,---,0.00,VWS V14.00,2013-06-11 11:45:00,
2013-06-11 05:46:00,55.4,20.2,0.00,South,173,0.0,0.0,25,0.00,,---,0.00,VWS V14.00,2013-06-11 11:46:00,
2013-06-11 05:48:00,55.2,21.0,0.00,SE,146,0.0,0.0,26,0.00,,---,0.00,VWS V14.00,2013-06-11 11:48:00,
2013-06-11 05:49:00,55.2,21.0,0.00,SE,145,0.0,0.0,26,0.00,,---,0.00,VWS V14.00,2013-06-11 11:49:00,
2013-06-11 05:50:00,55.2,21.0,0.00,SE,146,0.0,0.0,26,0.00,,---,0.00,VWS V14.00,2013-06-11 11:50:00,
2013-06-11 05:51:00,55.2,21.0,0.00,East,99,0.0,3.1,26,0.00,,---,0.00,VWS V14.00,2013-06-11 11:51:00,
2013-06-11 05:54:00,55.2,21.0,0.00,ESE,102,0.0,0.0,26,0.00,,---,0.00,VWS V14.00,2013-06-11 11:54:00,
2013-06-11 05:55:00,55.2,21.0,0.00,ENE,74,0.0,0.0,26,0.00,,---,0.00,VWS V14.00,2013-06-11 11:55:00,
2013-06-11 05:56:00,55.2,21.0,0.00,East,98,0.0,0.0,26,0.00,,---,0.00,VWS V14.00,2013-06-11 11:56:00,
2013-06-11 05:59:00,55.2,21.0,0.00,SSE,154,2.7,2.7,26,0.00,,---,0.00,VWS V14.00,2013-06-11 11:59:00,
2013-06-11 06:00:00,55.2,21.0,0.00,South,173,2.2,2.2,26,0.00,,---,0.00,VWS V14.00,2013-06-11 12:00:00,
2013-06-11 06:02:00,55.2,21.0,0.00,South,173,0.0,0.0,26,0.00,,---,0.00,VWS V14.00,2013-06-11 12:02:00,
2013-06-11 06:04:00,55.2,21.0,0.00,SE,129,0.0,2.7,26,0.00,,---,0.00,VWS V14.00,2013-06-11 12:04:00,
2013-06-11 06:05:00,55.2,21.0,0.00,ESE,115,0.0,0.0,26,0.00,,---,0.00,VWS V14.00,2013-06-11 12:05:00,
2013-06-11 06:07:00,55.2,21.0,0.00,SSE,159,0.0,0.0,26,0.00,,---,0.00,VWS V14.00,2013-06-11 12:07:00,
2013-06-11 06:09:00,55.2,21.0,0.00,SSE,159,0.0,0.0,26,0.00,,---,0.00,VWS V14.00,2013-06-11 12:09:00,
2013-06-11 06:10:00,55.2,21.0,0.00,ESE,113,2.2,3.6,26,0.00,,---,0.00,VWS V14.00,2013-06-11 12:10:00,
2013-06-11 06:12:00,55.2,21.0,0.00,East,92,0.0,4.9,26,0.00,,---,0.00,VWS V14.00,2013-06-11 12:12:00,
2013-06-11 06:14:00,55.2,21.0,0.00,SSE,159,3.1,3.6,26,0.00,,---,0.00,VWS V14.00,2013-06-11 12:14:00,
2013-06-11 06:15:00,55.2,21.0,0.00,ESE,108,2.2,3.6,26,0.00,,---,0.00,VWS V14.00,2013-06-11 12:15:00,
2013-06-11 06:17:00,55.2,21.0,0.00,ESE,123,0.0,0.0,26,0.00,,---,0.00,VWS V14.00,2013-06-11 12:17:00,
2013-06-11 06:19:00,55.2,21.0,0.00,SW,221,0.0,0.0,26,0.00,,---,0.00,VWS V14.00,2013-06-11 12:19:00,
2013-06-11 06:20:00,55.2,21.0,0.00,ESE,105,3.6,3.6,26,0.00,,---,0.00,VWS V14.00,2013-06-11 12:20:00,
2013-06-11 06:22:00,55.2,21.0,0.00,ESE,110,2.2,3.1,26,0.00,,---,0.00,VWS V14.00,2013-06-11 12:22:00,
2013-06-11 06:24:00,55.4,20.2,0.00,East,91,3.6,3.6,25,0.00,,---,0.00,VWS V14.00,2013-06-11 12:24:00,
2013-06-11 06:25:00,55.4,20.2,0.00,East,97,4.0,4.0,25,0.00,,---,0.00,VWS V14.00,2013-06-11 12:25:00,
2013-06-11 06:26:00,55.4,20.2,0.00,East,82,2.7,4.0,25,0.00,,---,0.00,VWS V14.00,2013-06-11 12:26:00,
2013-06-11 06:27:00,55.4,20.2,0.00,East,100,3.1,3.1,25,0.00,,---,0.00,VWS V14.00,2013-06-11 12:27:00,
2013-06-11 06:30:00,55.4,20.2,0.00,SE,139,0.0,2.2,25,0.00,,---,0.00,VWS V14.00,2013-06-11 12:30:00,
2013-06-11 06:32:00,55.6,20.3,0.00,SE,133,4.0,4.0,25,0.00,,---,0.00,VWS V14.00,2013-06-11 12:32:00,
2013-06-11 06:35:00,55.6,20.3,0.00,ESE,112,2.7,2.7,25,0.00,,---,0.00,VWS V14.00,2013-06-11 12:35:00,
2013-06-11 06:36:00,55.6,20.3,0.00,SE,128,3.6,3.6,25,0.00,,---,0.00,VWS V14.00,2013-06-11 12:36:00,
2013-06-11 06:37:00,55.8,20.5,0.00,ESE,116,5.4,5.4,25,0.00,,---,0.00,VWS V14.00,2013-06-11 12:37:00,
2013-06-11 06:40:00,55.8,20.5,0.00,ESE,116,2.7,2.7,25,0.00,,---,0.00,VWS V14.00,2013-06-11 12:40:00,
2013-06-11 06:41:00,55.8,20.5,0.00,East,83,2.2,3.6,25,0.00,,---,0.00,VWS V14.00,2013-06-11 12:41:00,
2013-06-11 06:42:00,55.9,20.6,0.00,South,190,0.0,3.6,25,0.00,,---,0.00,VWS V14.00,2013-06-11 12:42:00,
2013-06-11 06:43:00,55.9,20.6,0.00,ESE,111,4.9,4.9,25,0.00,,---,0.00,VWS V14.00,2013-06-11 12:43:00,
2013-06-11 06:45:00,56.1,20.8,0.00,SE,139,4.9,5.4,25,0.00,,---,0.00,VWS V14.00,2013-06-11 12:45:00,
2013-06-11 06:46:00,56.1,20.8,0.00,East,101,2.7,4.9,25,0.00,,---,0.00,VWS V14.00,2013-06-11 12:46:00,
2013-06-11 06:47:00,56.1,20.8,0.00,East,93,4.0,5.4,25,0.00,,---,0.00,VWS V14.00,2013-06-11 12:47:00,
2013-06-11 06:48:00,56.1,20.8,0.00,SE,142,3.1,3.1,25,0.00,,---,0.00,VWS V14.00,2013-06-11 12:48:00,
2013-06-11 06:50:00,56.3,21.0,0.00,SSE,154,4.0,4.0,25,0.00,,---,0.00,VWS V14.00,2013-06-11 12:50:00,
2013-06-11 06:51:00,56.3,21.0,0.00,SSW,204,0.0,4.0,25,0.00,,---,0.00,VWS V14.00,2013-06-11 12:51:00,
2013-06-11 06:52:00,56.3,21.0,0.00,ESE,119,2.7,3.6,25,0.00,,---,0.00,VWS V14.00,2013-06-11 12:52:00,
2013-06-11 06:53:00,56.5,21.1,0.00,SSE,165,3.1,3.6,25,0.00,,---,0.00,VWS V14.00,2013-06-11 12:53:00,
2013-06-11 06:55:00,56.7,21.3,0.00,ESE,103,3.1,3.1,25,0.00,,---,0.00,VWS V14.00,2013-06-11 12:55:00,
2013-06-11 06:56:00,56.7,21.3,0.00,ESE,111,0.0,3.1,25,0.00,,---,0.00,VWS V14.00,2013-06-11 12:56:00,
2013-06-11 06:57:00,56.8,21.4,0.00,ESE,118,0.0,0.0,25,0.00,,---,0.00,VWS V14.00,2013-06-11 12:57:00,
2013-06-11 06:58:00,56.8,21.4,0.00,ESE,122,2.2,2.2,25,0.00,,---,0.00,VWS V14.00,2013-06-11 12:58:00,
2013-06-11 07:00:00,56.8,21.4,0.00,SSE,152,2.7,2.7,25,0.00,,---,0.00,VWS V14.00,2013-06-11 13:00:00,
2013-06-11 07:02:00,57.0,21.6,0.00,SSE,152,0.0,0.0,25,0.00,,---,0.00,VWS V14.00,2013-06-11 13:02:00,
2013-06-11 07:03:00,57.0,21.6,0.00,ESE,115,2.7,3.1,25,0.00,,---,0.00,VWS V14.00,2013-06-11 13:03:00,
2013-06-11 07:05:00,57.0,21.6,0.00,East,99,0.0,0.0,25,0.00,,---,0.00,VWS V14.00,2013-06-11 13:05:00,
2013-06-11 07:07:00,57.2,21.7,0.00,SSE,154,0.0,0.0,25,0.00,,---,0.00,VWS V14.00,2013-06-11 13:07:00,
2013-06-11 07:08:00,57.2,21.7,0.00,SSE,156,0.0,2.7,25,0.00,,---,0.00,VWS V14.00,2013-06-11 13:08:00,
2013-06-11 07:11:00,57.2,20.8,0.00,ESE,110,3.6,3.6,24,0.00,,---,0.00,VWS V14.00,2013-06-11 13:11:00,
2013-06-11 07:12:00,57.4,21.9,0.00,East,100,3.6,3.6,25,0.00,,---,0.00,VWS V14.00,2013-06-11 13:12:00,
2013-06-11 07:13:00,57.6,22.0,0.00,ENE,73,0.0,0.0,25,0.00,,---,0.00,VWS V14.00,2013-06-11 13:13:00,
2013-06-11 07:16:00,57.6,21.1,0.00,East,96,0.0,0.0,24,0.00,,---,0.00,VWS V14.00,2013-06-11 13:16:00,
2013-06-11 07:17:00,57.7,21.2,0.00,East,95,0.0,0.0,24,0.00,,---,0.00,VWS V14.00,2013-06-11 13:17:00,
2013-06-11 07:18:00,57.7,21.2,0.00,NE,52,0.0,0.0,24,0.00,,---,0.00,VWS V14.00,2013-06-11 13:18:00,
2013-06-11 07:21:00,57.9,21.4,0.00,SW,224,0.0,4.0,24,0.00,,---,0.00,VWS V14.00,2013-06-11 13:21:00,
2013-06-11 07:22:00,57.9,21.4,0.00,NE,55,3.1,3.6,24,0.00,,---,0.00,VWS V14.00,2013-06-11 13:22:00,
2013-06-11 07:23:00,58.1,21.5,0.00,North,2,0.0,0.0,24,0.00,,---,0.00,VWS V14.00,2013-06-11 13:23:00,
2013-06-11 07:26:00,58.1,22.5,0.00,NW,315,0.0,0.0,25,0.00,,---,0.00,VWS V14.00,2013-06-11 13:26:00,
2013-06-11 07:27:00,58.3,21.7,0.00,NW,306,2.7,2.7,24,0.00,,---,0.00,VWS V14.00,2013-06-11 13:27:00,
2013-06-11 07:28:00,58.5,21.8,0.00,WNW,286,0.0,0.0,24,0.00,,---,0.00,VWS V14.00,2013-06-11 13:28:00,
2013-06-11 07:31:00,58.5,21.8,0.00,West,267,0.0,0.0,24,0.00,,---,0.00,VWS V14.00,2013-06-11 13:31:00,
2013-06-11 07:32:00,58.6,22.0,0.00,West,265,0.0,0.0,24,0.00,,---,0.00,VWS V14.00,2013-06-11 13:32:00,
2013-06-11 07:34:00,58.8,23.1,0.00,West,265,0.0,0.0,25,0.00,,---,0.00,VWS V14.00,2013-06-11 13:34:00,
2013-06-11 07:36:00,58.8,23.1,0.00,West,267,0.0,0.0,25,0.00,,---,0.00,VWS V14.00,2013-06-11 13:36:00,
2013-06-11 07:37:00,58.8,23.1,0.00,West,266,0.0,0.0,25,0.00,,---,0.00,VWS V14.00,2013-06-11 13:37:00,
2013-06-11 07:39:00,59.0,22.3,0.00,West,267,0.0,0.0,24,0.00,,---,0.00,VWS V14.00,2013-06-11 13:39:00,
2013-06-11 07:41:00,59.2,22.4,0.00,WSW,246,0.0,0.0,24,0.00,,---,0.00,VWS V14.00,2013-06-11 13:41:00,
2013-06-11 07:42:00,59.4,22.6,0.00,WSW,238,0.0,3.6,24,0.00,,---,0.00,VWS V14.00,2013-06-11 13:42:00,
2013-06-11 07:44:00,59.5,22.7,0.00,SE,132,3.6,3.6,24,0.00,,---,0.00,VWS V14.00,2013-06-11 13:44:00,
2013-06-11 07:46:00,59.7,22.9,0.00,ENE,70,3.1,3.1,24,0.00,,---,0.00,VWS V14.00,2013-06-11 13:46:00,
2013-06-11 07:47:00,59.7,22.9,0.00,ESE,115,0.0,3.1,24,0.00,,---,0.00,VWS V14.00,2013-06-11 13:47:00,
2013-06-11 07:48:00,59.7,22.9,0.00,ESE,117,0.0,0.0,24,0.00,,---,0.00,VWS V14.00,2013-06-11 13:48:00,
2013-06-11 07:49:00,59.9,23.0,0.00,ESE,117,0.0,0.0,24,0.00,,---,0.00,VWS V14.00,2013-06-11 13:49:00,
2013-06-11 07:52:00,60.1,23.2,0.00,NE,54,3.6,5.4,24,0.00,,---,0.00,VWS V14.00,2013-06-11 13:52:00,
2013-06-11 07:53:00,60.3,23.4,0.00,ESE,122,3.6,3.6,24,0.00,,---,0.00,VWS V14.00,2013-06-11 13:53:00,
2013-06-11 07:54:00,60.4,23.5,0.00,SE,143,3.1,4.0,24,0.00,,---,0.00,VWS V14.00,2013-06-11 13:54:00,
2013-06-11 07:57:00,60.6,23.6,0.00,ENE,61,2.7,5.4,24,0.00,,---,0.00,VWS V14.00,2013-06-11 13:57:00,
2013-06-11 07:58:00,60.8,23.8,0.00,ESE,120,5.8,5.8,24,0.00,,---,0.00,VWS V14.00,2013-06-11 13:58:00,
2013-06-11 07:59:00,61.0,24.0,0.00,ESE,115,0.0,2.2,24,0.00,,---,0.00,VWS V14.00,2013-06-11 13:59:00,
2013-06-11 08:02:00,61.2,24.1,0.00,East,100,3.1,8.1,24,0.00,,---,0.00,VWS V14.00,2013-06-11 14:02:00,
2013-06-11 08:03:00,61.3,24.3,0.00,East,100,0.0,3.1,24,0.00,,---,0.00,VWS V14.00,2013-06-11 14:03:00,
2013-06-11 08:04:00,61.3,24.3,0.00,East,85,4.9,5.4,24,0.00,,---,0.00,VWS V14.00,2013-06-11 14:04:00,
2013-06-11 08:07:00,61.7,24.6,0.00,East,87,3.1,4.9,24,0.00,,---,0.00,VWS V14.00,2013-06-11 14:07:00,
2013-06-11 08:08:00,61.7,24.6,0.00,ENE,60,2.2,3.1,24,0.00,,---,0.00,VWS V14.00,2013-06-11 14:08:00,
2013-06-11 08:09:00,61.9,24.7,0.00,ENE,65,7.2,7.2,24,0.00,,---,0.00,VWS V14.00,2013-06-11 14:09:00,
2013-06-11 08:12:00,62.2,25.0,0.00,ESE,113,6.7,6.7,24,0.00,,---,0.00,VWS V14.00,2013-06-11 14:12:00,
2013-06-11 08:13:00,62.2,25.0,0.00,NNE,24,2.7,6.7,24,0.00,,---,0.00,VWS V14.00,2013-06-11 14:13:00,
2013-06-11 08:14:00,62.4,25.2,0.00,East,85,2.7,3.6,24,0.00,,---,0.00,VWS V14.00,2013-06-11 14:14:00,
2013-06-11 08:17:00,62.8,24.5,0.00,SE,128,4.9,4.9,23,0.00,,---,0.00,VWS V14.00,2013-06-11 14:17:00,
2013-06-11 08:18:00,62.8,24.5,0.00,East,91,5.4,6.3,23,0.00,,---,0.00,VWS V14.00,2013-06-11 14:18:00,
2013-06-11 08:19:00,63.0,24.6,0.00,SE,132,3.1,3.1,23,0.00,,---,0.00,VWS V14.00,2013-06-11 14:19:00,
2013-06-11 08:22:00,63.3,24.9,0.00,NNE,21,0.0,2.7,23,0.00,,---,0.00,VWS V14.00,2013-06-11 14:22:00,
2013-06-11 08:23:00,63.3,24.9,0.00,NNW,344,0.0,2.7,23,0.00,,---,0.00,VWS V14.00,2013-06-11 14:23:00,
2013-06-11 08:24:00,63.3,24.9,0.00,SE,141,5.8,5.8,23,0.00,,---,0.00,VWS V14.00,2013-06-11 14:24:00,
2013-06-11 08:27:00,64.4,25.8,0.00,ENE,72,6.3,6.3,23,0.00,,---,0.00,VWS V14.00,2013-06-11 14:27:00,
2013-06-11 08:28:00,64.6,26.0,0.00,East,82,5.8,6.3,23,0.00,,---,0.00,VWS V14.00,2013-06-11 14:28:00,
2013-06-11 08:29:00,64.8,26.1,0.00,East,89,4.5,4.9,23,0.00,,---,0.00,VWS V14.00,2013-06-11 14:29:00,
2013-06-11 08:33:00,65.8,23.7,0.00,East,86,3.1,4.0,20,0.00,,---,0.00,VWS V14.00,2013-06-11 14:33:00,
2013-06-11 08:34:00,66.0,27.2,0.00,East,100,4.0,4.0,23,0.00,,---,0.00,VWS V14.00,2013-06-11 14:34:00,
2013-06-11 08:35:00,66.4,24.1,0.00,ESE,104,3.6,3.6,20,0.00,,---,0.00,VWS V14.00,2013-06-11 14:35:00,
2013-06-11 08:38:00,66.6,24.3,0.00,NE,43,2.7,4.0,20,0.00,,---,0.00,VWS V14.00,2013-06-11 14:38:00,
2013-06-11 08:39:00,66.6,24.3,0.00,East,90,3.1,5.4,20,0.00,,---,0.00,VWS V14.00,2013-06-11 14:39:00,
2013-06-11 08:40:00,66.6,24.3,0.00,NE,49,3.1,4.9,20,0.00,,---,0.00,VWS V14.00,2013-06-11 14:40:00,
2013-06-11 08:43:00,66.6,24.3,0.00,ESE,122,3.6,6.3,20,0.00,,---,0.00,VWS V14.00,2013-06-11 14:43:00,
2013-06-11 08:44:00,66.7,24.4,0.00,ENE,75,3.1,3.6,20,0.00,,---,0.00,VWS V14.00,2013-06-11 14:44:00,
2013-06-11 08:45:00,66.7,24.4,0.00,ESE,117,4.9,5.8,20,0.00,,---,0.00,VWS V14.00,2013-06-11 14:45:00,
2013-06-11 08:48:00,66.9,24.6,0.00,East,84,4.9,7.2,20,0.00,,---,0.00,VWS V14.00,2013-06-11 14:48:00,
2013-06-11 08:49:00,66.9,24.6,0.00,ENE,78,4.9,7.2,20,0.00,,---,0.00,VWS V14.00,2013-06-11 14:49:00,
2013-06-11 08:50:00,67.1,24.7,0.00,ESE,116,3.1,3.1,20,0.00,,---,0.00,VWS V14.00,2013-06-11 14:50:00,
2013-06-11 08:53:00,67.3,24.9,0.00,NE,54,2.2,2.7,20,0.00,,---,0.00,VWS V14.00,2013-06-11 14:53:00,
2013-06-11 08:54:00,67.5,25.0,0.00,SSE,155,3.6,3.6,20,0.00,,---,0.00,VWS V14.00,2013-06-11 14:54:00,
2013-06-11 08:56:00,67.5,25.0,0.00,ESE,123,0.0,3.1,20,0.00,,---,0.00,VWS V14.00,2013-06-11 14:56:00,
2013-06-11 08:59:00,67.8,25.3,0.00,NE,36,5.4,5.4,20,0.00,,---,0.00,VWS V14.00,2013-06-11 14:59:00,
2013-06-11 09:01:00,68.0,25.5,0.00,SE,138,5.4,5.4,20,0.00,,---,0.00,VWS V14.00,2013-06-11 15:01:00,
2013-06-11 09:04:00,68.2,25.6,0.00,ENE,70,4.0,5.4,20,0.00,,---,0.00,VWS V14.00,2013-06-11 15:04:00,
2013-06-11 09:05:00,68.2,25.6,0.00,ENE,77,4.9,4.9,20,0.00,,---,0.00,VWS V14.00,2013-06-11 15:05:00,
2013-06-11 09:06:00,68.4,25.8,0.00,ESE,105,0.0,4.0,20,0.00,,---,0.00,VWS V14.00,2013-06-11 15:06:00,
2013-06-11 09:09:00,68.5,25.9,0.00,SSE,150,4.0,4.9,20,0.00,,---,0.00,VWS V14.00,2013-06-11 15:09:00,
2013-06-11 09:10:00,68.7,26.1,0.00,SSE,164,2.7,5.4,20,0.00,,---,0.00,VWS V14.00,2013-06-11 15:10:00,
2013-06-11 09:11:00,68.7,26.1,0.00,ENE,75,3.1,4.0,20,0.00,,---,0.00,VWS V14.00,2013-06-11 15:11:00,
2013-06-11 09:14:00,68.9,26.2,0.00,East,96,4.9,5.8,20,0.00,,---,0.00,VWS V14.00,2013-06-11 15:14:00,
2013-06-11 09:15:00,69.1,26.4,0.00,East,88,0.0,5.4,20,0.00,,---,0.00,VWS V14.00,2013-06-11 15:15:00,
2013-06-11 09:17:00,69.3,26.5,0.00,East,89,3.6,3.6,20,0.00,,---,0.00,VWS V14.00,2013-06-11 15:17:00,
2013-06-11 09:19:00,69.3,26.5,0.00,ENE,76,3.1,4.9,20,0.00,,---,0.00,VWS V14.00,2013-06-11 15:19:00,
2013-06-11 09:20:00,69.4,26.7,0.00,ESE,120,5.8,5.8,20,0.00,,---,0.00,VWS V14.00,2013-06-11 15:20:00,
2013-06-11 09:22:00,69.4,26.7,0.00,NNW,330,0.0,2.7,20,0.00,,---,0.00,VWS V14.00,2013-06-11 15:22:00,
2013-06-11 09:24:00,69.8,25.7,0.00,East,92,3.1,3.1,19,0.00,,---,0.00,VWS V14.00,2013-06-11 15:24:00,
2013-06-11 09:25:00,69.8,25.7,0.00,NNW,329,3.1,5.8,19,0.00,,---,0.00,VWS V14.00,2013-06-11 15:25:00,
2013-06-11 09:26:00,69.8,25.7,0.00,SE,145,3.6,5.4,19,0.00,,---,0.00,VWS V14.00,2013-06-11 15:26:00,
2013-06-11 09:27:00,70.0,25.9,0.00,East,92,4.0,5.8,19,0.00,,---,0.00,VWS V14.00,2013-06-11 15:27:00,
2013-06-11 09:29:00,70.2,26.0,0.00,East,93,4.9,4.9,19,0.00,,---,0.00,VWS V14.00,2013-06-11 15:29:00,
2013-06-11 09:30:00,70.2,26.0,0.00,ESE,106,5.8,8.7,19,0.00,,---,0.00,VWS V14.00,2013-06-11 15:30:00,
2013-06-11 09:32:00,70.3,26.2,0.00,ESE,108,3.6,5.8,19,0.00,,---,0.00,VWS V14.00,2013-06-11 15:32:00,
2013-06-11 09:34:00,70.5,26.3,0.00,SE,129,3.6,5.8,19,0.00,,---,0.00,VWS V14.00,2013-06-11 15:34:00,
2013-06-11 09:35:00,70.5,26.3,0.00,ESE,115,7.6,7.6,19,0.00,,---,0.00,VWS V14.00,2013-06-11 15:35:00,
2013-06-11 09:37:00,70.7,26.5,0.00,ESE,107,12.8,12.8,19,0.00,,---,0.00,VWS V14.00,2013-06-11 15:37:00,
2013-06-11 09:39:00,70.7,26.5,0.00,SSW,208,2.2,2.2,19,0.00,,---,0.00,VWS V14.00,2013-06-11 15:39:00,
2013-06-11 09:40:00,70.7,26.5,0.00,SSW,208,2.2,2.2,19,0.00,,---,0.00,VWS V14.00,2013-06-11 15:40:00,
2013-06-11 09:42:00,71.1,24.1,0.00,NE,43,3.1,3.1,17,0.00,,---,0.00,VWS V14.00,2013-06-11 15:42:00,
2013-06-11 09:45:00,71.2,24.2,0.00,SE,139,5.8,5.8,17,0.00,,---,0.00,VWS V14.00,2013-06-11 15:45:00,
2013-06-11 09:47:00,71.4,24.4,0.00,NE,37,3.6,3.6,17,0.00,,---,0.00,VWS V14.00,2013-06-11 15:47:00,
2013-06-11 09:50:00,71.6,23.1,0.00,SE,131,4.0,5.8,16,0.00,,---,0.00,VWS V14.00,2013-06-11 15:50:00,
2013-06-11 09:51:00,71.6,23.1,0.00,East,82,2.2,3.1,16,0.00,,---,0.00,VWS V14.00,2013-06-11 15:51:00,
2013-06-11 09:52:00,71.8,23.2,0.00,ENE,72,2.7,3.6,16,0.00,,---,0.00,VWS V14.00,2013-06-11 15:52:00,
2013-06-11 09:53:00,71.8,23.2,0.00,SE,125,3.6,3.6,16,0.00,,---,0.00,VWS V14.00,2013-06-11 15:53:00,
2013-06-11 09:55:00,72.0,23.4,0.00,ESE,112,5.8,5.8,16,0.00,,---,0.00,VWS V14.00,2013-06-11 15:55:00,
2013-06-11 09:56:00,72.0,23.4,0.00,East,95,3.6,5.4,16,0.00,,---,0.00,VWS V14.00,2013-06-11 15:56:00,
2013-06-11 09:58:00,72.0,23.4,0.00,ESE,106,11.0,11.0,16,0.00,,---,0.00,VWS V14.00,2013-06-11 15:58:00,
2013-06-11 10:00:00,72.1,23.5,0.00,ENE,71,8.3,8.3,16,0.00,,---,0.00,VWS V14.00,2013-06-11 16:00:00,
2013-06-11 10:01:00,72.1,23.5,0.00,East,89,5.4,5.4,16,0.00,,---,0.00,VWS V14.00,2013-06-11 16:01:00,
2013-06-11 10:03:00,72.3,23.6,0.00,ESE,103,5.8,8.7,16,0.00,,---,0.00,VWS V14.00,2013-06-11 16:03:00,
2013-06-11 10:05:00,72.3,23.6,0.00,ESE,102,3.6,5.8,16,0.00,,---,0.00,VWS V14.00,2013-06-11 16:05:00,
2013-06-11 10:06:00,72.3,23.6,0.00,SE,131,3.1,5.8,16,0.00,,---,0.00,VWS V14.00,2013-06-11 16:06:00,
2013-06-11 10:07:00,72.5,23.8,0.00,SE,142,3.6,8.1,16,0.00,,---,0.00,VWS V14.00,2013-06-11 16:07:00,
2013-06-11 10:08:00,72.5,23.8,0.00,SE,134,4.9,9.6,16,0.00,,---,0.00,VWS V14.00,2013-06-11 16:08:00,
2013-06-11 10:11:00,72.7,23.9,0.00,ENE,68,5.4,5.4,16,0.00,,---,0.00,VWS V14.00,2013-06-11 16:11:00,
2013-06-11 10:12:00,72.7,23.9,0.00,East,98,3.6,5.4,16,0.00,,---,0.00,VWS V14.00,2013-06-11 16:12:00,
2013-06-11 10:13:00,72.7,23.9,0.00,ESE,122,4.0,5.8,16,0.00,,---,0.00,VWS V14.00,2013-06-11 16:13:00,
2013-06-11 10:16:00,72.9,24.1,0.00,SE,136,7.6,7.6,16,0.00,,---,0.00,VWS V14.00,2013-06-11 16:16:00,
2013-06-11 10:17:00,72.9,24.1,0.00,NE,44,3.6,11.0,16,0.00,,---,0.00,VWS V14.00,2013-06-11 16:17:00,
2013-06-11 10:18:00,72.9,24.1,0.00,SE,140,4.0,5.4,16,0.00,,---,0.00,VWS V14.00,2013-06-11 16:18:00,
2013-06-11 10:21:00,73.2,24.4,0.00,SE,137,5.4,5.4,16,0.00,,---,0.00,VWS V14.00,2013-06-11 16:21:00,
2013-06-11 10:22:00,73.2,24.4,0.00,ESE,113,3.1,6.7,16,0.00,,---,0.00,VWS V14.00,2013-06-11 16:22:00,
2013-06-11 10:23:00,73.2,24.4,0.00,East,90,3.6,3.6,16,0.00,,---,0.00,VWS V14.00,2013-06-11 16:23:00,
2013-06-11 10:26:00,73.4,24.5,0.00,East,81,4.9,4.9,16,0.00,,---,0.00,VWS V14.00,2013-06-11 16:26:00,
2013-06-11 10:27:00,73.4,24.5,0.00,NE,50,2.7,6.3,16,0.00,,---,0.00,VWS V14.00,2013-06-11 16:27:00,
2013-06-11 10:28:00,73.6,24.7,0.00,SE,124,4.0,4.0,16,0.00,,---,0.00,VWS V14.00,2013-06-11 16:28:00,
2013-06-11 10:32:00,73.6,24.7,0.00,SE,126,3.6,7.6,16,0.00,,---,0.00,VWS V14.00,2013-06-11 16:32:00,
2013-06-11 10:33:00,73.8,24.8,0.00,ESE,109,7.6,7.6,16,0.00,,---,0.00,VWS V14.00,2013-06-11 16:33:00,
2013-06-11 10:34:00,73.8,24.8,0.00,East,91,5.4,7.6,16,0.00,,---,0.00,VWS V14.00,2013-06-11 16:34:00,
2013-06-11 10:37:00,73.9,25.0,0.00,SSE,159,6.3,6.3,16,0.00,,---,0.00,VWS V14.00,2013-06-11 16:37:00,
2013-06-11 10:38:00,73.9,20.0,0.00,East,92,6.3,6.3,13,0.00,,---,0.00,VWS V14.00,2013-06-11 16:38:00,
2013-06-11 10:39:00,73.9,20.0,0.00,SSE,155,6.3,6.3,13,0.00,,---,0.00,VWS V14.00,2013-06-11 16:39:00,
2013-06-11 10:42:00,74.1,25.1,0.00,SE,139,5.4,5.4,16,0.00,,---,0.00,VWS V14.00,2013-06-11 16:42:00,
2013-06-11 10:43:00,74.3,25.2,0.00,East,97,4.0,6.3,16,0.00,,---,0.00,VWS V14.00,2013-06-11 16:43:00,
2013-06-11 10:44:00,74.3,20.3,0.00,SE,146,5.8,5.8,13,0.00,,---,0.00,VWS V14.00,2013-06-11 16:44:00,
2013-06-11 10:47:00,74.5,25.4,0.00,East,92,4.9,6.3,16,0.00,,---,0.00,VWS V14.00,2013-06-11 16:47:00,
2013-06-11 10:48:00,74.5,25.4,0.00,SE,146,6.3,6.3,16,0.00,,---,0.00,VWS V14.00,2013-06-11 16:48:00,
2013-06-11 10:49:00,74.5,25.4,0.00,SE,127,10.1,10.1,16,0.00,,---,0.00,VWS V14.00,2013-06-11 16:49:00,
2013-06-11 10:52:00,74.7,20.6,0.00,SE,128,6.3,7.6,13,0.00,,---,0.00,VWS V14.00,2013-06-11 16:52:00,
2013-06-11 10:53:00,74.7,20.6,0.00,NE,53,8.7,8.7,13,0.00,,---,0.00,VWS V14.00,2013-06-11 16:53:00,
2013-06-11 10:54:00,74.7,20.6,0.00,East,95,4.0,11.0,13,0.00,,---,0.00,VWS V14.00,2013-06-11 16:54:00,
2013-06-11 10:57:00,74.8,20.7,0.00,NE,36,4.0,5.4,13,0.00,,---,0.00,VWS V14.00,2013-06-11 16:57:00,
2013-06-11 10:58:00,74.8,20.7,0.00,ESE,110,4.0,5.4,13,0.00,,---,0.00,VWS V14.00,2013-06-11 16:58:00,
2013-06-11 10:59:00,75.0,20.9,0.00,ESE,103,7.2,8.7,13,0.00,,---,0.00,VWS V14.00,2013-06-11 16:59:00,
2013-06-11 11:02:00,75.0,20.9,0.00,ESE,118,3.6,5.4,13,0.00,,---,0.00,VWS V14.00,2013-06-11 17:02:00,
2013-06-11 11:03:00,75.2,21.0,0.00,NE,56,5.4,5.4,13,0.00,,---,0.00,VWS V14.00,2013-06-11 17:03:00,
2013-06-11 11:04:00,75.2,21.0,0.00,ESE,117,5.4,9.2,13,0.00,,---,0.00,VWS V14.00,2013-06-11 17:04:00,
2013-06-11 11:08:00,75.4,21.2,0.00,SE,124,3.6,3.6,13,0.00,,---,0.00,VWS V14.00,2013-06-11 17:08:00,
2013-06-11 11:09:00,75.4,21.2,0.00,East,92,10.1,10.1,13,0.00,,---,0.00,VWS V14.00,2013-06-11 17:09:00,
2013-06-11 11:13:00,75.6,21.3,0.00,East,94,7.6,8.7,13,0.00,,---,0.00,VWS V14.00,2013-06-11 17:13:00,
2013-06-11 11:14:00,75.7,21.5,0.00,SE,142,7.6,10.1,13,0.00,,---,0.00,VWS V14.00,2013-06-11 17:14:00,
2013-06-11 11:15:00,75.7,21.5,0.00,ESE,116,5.8,10.1,13,0.00,,---,0.00,VWS V14.00,2013-06-11 17:15:00,
2013-06-11 11:18:00,75.9,21.6,0.00,East,82,5.4,8.7,13,0.00,,---,0.00,VWS V14.00,2013-06-11 17:18:00,
2013-06-11 11:19:00,75.9,21.6,0.00,ESE,105,4.9,4.9,13,0.00,,---,0.00,VWS V14.00,2013-06-11 17:19:00,
2013-06-11 11:20:00,75.9,21.6,0.00,East,89,5.4,5.4,13,0.00,,---,0.00,VWS V14.00,2013-06-11 17:20:00,
2013-06-11 11:23:00,76.1,21.7,0.00,ESE,108,5.4,5.4,13,0.00,,---,0.00,VWS V14.00,2013-06-11 17:23:00,
2013-06-11 11:24:00,76.1,21.7,0.00,ENE,57,8.7,8.7,13,0.00,,---,0.00,VWS V14.00,2013-06-11 17:24:00,
2013-06-11 11:25:00,76.1,21.7,0.00,SE,140,2.7,5.8,13,0.00,,---,0.00,VWS V14.00,2013-06-11 17:25:00,
2013-06-11 11:28:00,76.3,15.8,0.00,East,87,3.6,11.0,10,0.00,,---,0.00,VWS V14.00,2013-06-11 17:28:00,
2013-06-11 11:29:00,76.3,15.8,0.00,NE,44,4.9,4.9,10,0.00,,---,0.00,VWS V14.00,2013-06-11 17:29:00,
2013-06-11 11:30:00,76.3,15.8,0.00,East,84,5.4,6.3,10,0.00,,---,0.00,VWS V14.00,2013-06-11 17:30:00,
2013-06-11 11:33:00,76.3,15.8,0.00,ENE,59,5.8,5.8,10,0.00,,---,0.00,VWS V14.00,2013-06-11 17:33:00,
2013-06-11 11:34:00,76.3,15.8,0.00,South,191,7.6,7.6,10,0.00,,---,0.00,VWS V14.00,2013-06-11 17:34:00,
2013-06-11 11:35:00,76.3,15.8,0.00,East,83,5.8,7.6,10,0.00,,---,0.00,VWS V14.00,2013-06-11 17:35:00,
2013-06-11 11:38:00,76.5,15.9,0.00,NE,48,5.8,5.8,10,0.00,,---,0.00,VWS V14.00,2013-06-11 17:38:00,
2013-06-11 11:39:00,76.5,15.9,0.00,NE,48,5.8,5.8,10,0.00,,---,0.00,VWS V14.00,2013-06-11 17:39:00,
2013-06-11 11:40:00,76.5,15.9,0.00,ESE,114,5.4,6.7,10,0.00,,---,0.00,VWS V14.00,2013-06-11 17:40:00,
2013-06-11 11:43:00,76.6,16.0,0.00,ENE,72,2.7,5.4,10,0.00,,---,0.00,VWS V14.00,2013-06-11 17:43:00,
2013-06-11 11:44:00,76.6,16.0,0.00,ENE,78,6.3,6.3,10,0.00,,---,0.00,VWS V14.00,2013-06-11 17:44:00,
2013-06-11 11:45:00,76.6,16.0,0.00,ESE,102,4.9,8.3,10,0.00,,---,0.00,VWS V14.00,2013-06-11 17:45:00,
2013-06-11 11:49:00,76.6,16.0,0.00,NNE,16,4.5,6.7,10,0.00,,---,0.00,VWS V14.00,2013-06-11 17:49:00,
2013-06-11 11:50:00,76.8,16.2,0.00,NNE,25,6.3,8.3,10,0.00,,---,0.00,VWS V14.00,2013-06-11 17:50:00,
2013-06-11 11:51:00,76.8,16.2,0.00,ESE,102,5.4,7.6,10,0.00,,---,0.00,VWS V14.00,2013-06-11 17:51:00,
2013-06-11 11:54:00,76.8,16.2,0.00,ENE,70,6.3,8.7,10,0.00,,---,0.00,VWS V14.00,2013-06-11 17:54:00,
2013-06-11 11:56:00,77.0,16.3,0.00,ESE,117,5.8,11.0,10,0.00,,---,0.00,VWS V14.00,2013-06-11 17:56:00,
2013-06-11 11:59:00,77.0,16.3,0.00,ESE,103,5.4,10.1,10,0.00,,---,0.00,VWS V14.00,2013-06-11 17:59:00,
2013-06-11 12:00:00,77.0,16.3,0.00,SE,130,5.8,7.6,10,0.00,,---,0.00,VWS V14.00,2013-06-11 18:00:00,
2013-06-11 12:01:00,77.2,16.5,0.00,SE,144,5.8,5.8,10,0.00,,---,0.00,VWS V14.00,2013-06-11 18:01:00,
2013-06-11 12:02:00,77.2,16.5,0.00,SE,124,8.3,10.5,10,0.00,,---,0.00,VWS V14.00,2013-06-11 18:02:00,
2013-06-11 12:04:00,77.2,16.5,0.00,East,87,2.2,7.6,10,0.00,,---,0.00,VWS V14.00,2013-06-11 18:04:00,
2013-06-11 12:05:00,77.2,16.5,0.00,SE,125,6.3,6.3,10,0.00,,---,0.00,VWS V14.00,2013-06-11 18:05:00,
2013-06-11 12:06:00,77.2,16.5,0.00,SSE,160,8.3,11.0,10,0.00,,---,0.00,VWS V14.00,2013-06-11 18:06:00,
2013-06-11 12:07:00,77.4,16.6,0.00,East,91,6.3,6.3,10,0.00,,---,0.00,VWS V14.00,2013-06-11 18:07:00,
2013-06-11 12:09:00,77.4,16.6,0.00,NNE,27,7.2,8.7,10,0.00,,---,0.00,VWS V14.00,2013-06-11 18:09:00,
2013-06-11 12:10:00,77.4,16.6,0.00,ENE,72,4.0,7.2,10,0.00,,---,0.00,VWS V14.00,2013-06-11 18:10:00,
2013-06-11 12:11:00,77.5,16.7,0.00,South,188,4.0,5.8,10,0.00,,---,0.00,VWS V14.00,2013-06-11 18:11:00,
2013-06-11 12:12:00,77.5,16.7,0.00,NNE,16,5.4,6.3,10,0.00,,---,0.00,VWS V14.00,2013-06-11 18:12:00,
2013-06-11 12:14:00,77.5,16.7,0.00,ENE,64,8.3,8.3,10,0.00,,---,0.00,VWS V14.00,2013-06-11 18:14:00,
2013-06-11 12:15:00,77.5,16.7,0.00,SE,142,4.9,8.3,10,0.00,,---,0.00,VWS V14.00,2013-06-11 18:15:00,
2013-06-11 12:17:00,77.7,16.9,0.00,SE,130,6.3,8.3,10,0.00,,---,0.00,VWS V14.00,2013-06-11 18:17:00,
2013-06-11 12:18:00,77.7,16.9,0.00,SE,131,8.1,8.1,10,0.00,,---,0.00,VWS V14.00,2013-06-11 18:18:00,
2013-06-11 12:20:00,77.7,16.9,0.00,SE,145,6.3,7.6,10,0.00,,---,0.00,VWS V14.00,2013-06-11 18:20:00,
2013-06-11 12:22:00,77.7,16.9,0.00,East,85,7.6,7.6,10,0.00,,---,0.00,VWS V14.00,2013-06-11 18:22:00,
2013-06-11 12:23:00,77.7,16.9,0.00,ENE,72,4.0,7.6,10,0.00,,---,0.00,VWS V14.00,2013-06-11 18:23:00,
2013-06-11 12:25:00,77.7,16.9,0.00,NE,36,7.6,7.6,10,0.00,,---,0.00,VWS V14.00,2013-06-11 18:25:00,
2013-06-11 12:27:00,77.9,17.0,0.00,East,101,5.4,5.4,10,0.00,,---,0.00,VWS V14.00,2013-06-11 18:27:00,
2013-06-11 12:28:00,77.9,17.0,0.00,SE,126,6.3,6.3,10,0.00,,---,0.00,VWS V14.00,2013-06-11 18:28:00,
2013-06-11 12:30:00,78.1,17.1,0.00,East,82,4.0,8.3,10,0.00,,---,0.00,VWS V14.00,2013-06-11 18:30:00,
2013-06-11 12:33:00,78.1,17.1,0.00,East,82,6.3,10.1,10,0.00,,---,0.00,VWS V14.00,2013-06-11 18:33:00,
2013-06-11 12:35:00,77.9,17.0,0.00,ENE,78,6.3,7.6,10,0.00,,---,0.00,VWS V14.00,2013-06-11 18:35:00,
2013-06-11 12:36:00,77.9,17.0,0.00,ENE,71,8.3,10.1,10,0.00,,---,0.00,VWS V14.00,2013-06-11 18:36:00,
2013-06-11 12:38:00,78.1,17.1,0.00,SE,128,6.3,8.1,10,0.00,,---,0.00,VWS V14.00,2013-06-11 18:38:00,
2013-06-11 12:40:00,78.1,17.1,0.00,East,89,8.1,8.1,10,0.00,,---,0.00,VWS V14.00,2013-06-11 18:40:00,
2013-06-11 12:41:00,78.1,17.1,0.00,SE,145,10.1,10.1,10,0.00,,---,0.00,VWS V14.00,2013-06-11 18:41:00,
2013-06-11 12:43:00,78.1,17.1,0.00,South,171,5.8,6.3,10,0.00,,---,0.00,VWS V14.00,2013-06-11 18:43:00,
2013-06-11 12:45:00,78.1,17.1,0.00,ENE,69,8.1,11.0,10,0.00,,---,0.00,VWS V14.00,2013-06-11 18:45:00,
2013-06-11 12:46:00,78.1,17.1,0.00,NE,50,10.5,10.5,10,0.00,,---,0.00,VWS V14.00,2013-06-11 18:46:00,
2013-06-11 12:48:00,78.1,17.1,0.00,ESE,115,4.0,5.4,10,0.00,,---,0.00,VWS V14.00,2013-06-11 18:48:00,
2013-06-11 12:50:00,78.1,17.1,0.00,East,86,8.3,8.3,10,0.00,,---,0.00,VWS V14.00,2013-06-11 18:50:00,
2013-06-11 12:51:00,78.1,17.1,0.00,North,8,4.9,4.9,10,0.00,,---,0.00,VWS V14.00,2013-06-11 18:51:00,
2013-06-11 12:53:00,78.3,17.3,0.00,East,100,11.9,12.3,10,0.00,,---,0.00,VWS V14.00,2013-06-11 18:53:00,
2013-06-11 12:55:00,78.3,17.3,0.00,ESE,110,4.0,8.1,10,0.00,,---,0.00,VWS V14.00,2013-06-11 18:55:00,
2013-06-11 12:56:00,78.3,17.3,0.00,SE,131,8.7,8.7,10,0.00,,---,0.00,VWS V14.00,2013-06-11 18:56:00,
2013-06-11 12:58:00,78.3,17.3,0.00,SSW,202,5.4,8.7,10,0.00,,---,0.00,VWS V14.00,2013-06-11 18:58:00,
2013-06-11 13:00:00,78.3,17.3,0.00,ESE,116,7.6,7.6,10,0.00,,---,0.00,VWS V14.00,2013-06-11 19:00:00,
2013-06-11 13:01:00,78.3,17.3,0.00,SE,132,5.8,5.8,10,0.00,,---,0.00,VWS V14.00,2013-06-11 19:01:00,
2013-06-11 13:03:00,78.3,17.3,0.00,NE,34,7.2,8.3,10,0.00,,---,0.00,VWS V14.00,2013-06-11 19:03:00,
2013-06-11 13:04:00,78.1,17.1,0.00,ESE,117,5.8,8.1,10,0.00,,---,0.00,VWS V14.00,2013-06-11 19:04:00,
2013-06-11 13:05:00,78.1,17.1,0.00,SE,128,8.3,11.0,10,0.00,,---,0.00,VWS V14.00,2013-06-11 19:05:00,
2013-06-11 13:06:00,78.1,17.1,0.00,ENE,76,7.2,11.0,10,0.00,,---,0.00,VWS V14.00,2013-06-11 19:06:00,
2013-06-11 13:07:00,78.1,17.1,0.00,ESE,112,5.4,5.8,10,0.00,,---,0.00,VWS V14.00,2013-06-11 19:07:00,
2013-06-11 13:08:00,78.1,17.1,0.00,SE,124,3.6,3.6,10,0.00,,---,0.00,VWS V14.00,2013-06-11 19:08:00,
2013-06-11 13:09:00,78.1,17.1,0.00,ESE,106,0.0,4.0,10,0.00,,---,0.00,VWS V14.00,2013-06-11 19:09:00,
2013-06-11 13:10:00,78.1,17.1,0.00,NNW,341,8.1,8.1,10,0.00,,---,0.00,VWS V14.00,2013-06-11 19:10:00,
2013-06-11 13:11:00,78.1,17.1,0.00,NE,43,7.2,11.9,10,0.00,,---,0.00,VWS V14.00,2013-06-11 19:11:00,
2013-06-11 13:12:00,78.1,17.1,0.00,East,101,7.2,7.2,10,0.00,,---,0.00,VWS V14.00,2013-06-11 19:12:00,
2013-06-11 13:13:00,78.1,17.1,0.00,NNE,15,8.1,8.7,10,0.00,,---,0.00,VWS V14.00,2013-06-11 19:13:00,
2013-06-11 13:14:00,78.3,17.3,0.00,East,100,4.9,8.1,10,0.00,,---,0.00,VWS V14.00,2013-06-11 19:14:00,
2013-06-11 13:16:00,78.3,17.3,0.00,ENE,63,5.8,8.7,10,0.00,,---,0.00,VWS V14.00,2013-06-11 19:16:00,
2013-06-11 13:17:00,78.3,17.3,0.00,SE,127,10.5,10.5,10,0.00,,---,0.00,VWS V14.00,2013-06-11 19:17:00,
2013-06-11 13:18:00,78.3,17.3,0.00,SE,125,6.3,11.4,10,0.00,,---,0.00,VWS V14.00,2013-06-11 19:18:00,
2013-06-11 13:20:00,78.3,17.3,0.00,East,101,3.1,8.3,10,0.00,,---,0.00,VWS V14.00,2013-06-11 19:20:00,
2013-06-11 13:21:00,78.3,17.3,0.00,NE,56,4.0,10.5,10,0.00,,---,0.00,VWS V14.00,2013-06-11 19:21:00,
2013-06-11 13:22:00,78.3,17.3,0.00,East,80,5.8,5.8,10,0.00,,---,0.00,VWS V14.00,2013-06-11 19:22:00,
2013-06-11 13:24:00,78.3,17.3,0.00,East,84,4.0,5.4,10,0.00,,---,0.00,VWS V14.00,2013-06-11 19:24:00,
2013-06-11 13:25:00,78.1,17.1,0.00,ESE,116,8.3,8.3,10,0.00,,---,0.00,VWS V14.00,2013-06-11 19:25:00,
2013-06-11 13:26:00,78.3,17.3,0.00,East,96,9.2,9.2,10,0.00,,---,0.00,VWS V14.00,2013-06-11 19:26:00,
2013-06-11 13:27:00,78.3,17.3,0.00,ENE,64,8.1,10.1,10,0.00,,---,0.00,VWS V14.00,2013-06-11 19:27:00,
2013-06-11 13:29:00,78.3,17.3,0.00,East,98,8.7,13.2,10,0.00,,---,0.00,VWS V14.00,2013-06-11 19:29:00,
2013-06-11 13:30:00,78.1,12.0,0.00,SSE,160,8.1,8.1,8,0.00,,---,0.00,VWS V14.00,2013-06-11 19:30:00,
2013-06-11 13:31:00,78.1,17.1,0.00,NE,55,5.8,6.3,10,0.00,,---,0.00,VWS V14.00,2013-06-11 19:31:00,
2013-06-11 13:32:00,78.1,17.1,0.00,ENE,69,12.3,12.3,10,0.00,,---,0.00,VWS V14.00,2013-06-11 19:32:00,
2013-06-11 13:33:00,78.1,17.1,0.00,ESE,107,9.6,9.6,10,0.00,,---,0.00,VWS V14.00,2013-06-11 19:33:00,
2013-06-11 13:34:00,78.1,17.1,0.00,East,89,5.8,8.7,10,0.00,,---,0.00,VWS V14.00,2013-06-11 19:34:00,
2013-06-11 13:35:00,78.1,17.1,0.00,ESE,113,8.7,8.7,10,0.00,,---,0.00,VWS V14.00,2013-06-11 19:35:00,
2013-06-11 13:36:00,78.1,12.0,0.00,ESE,108,6.3,6.3,8,0.00,,---,0.00,VWS V14.00,2013-06-11 19:36:00,
2013-06-11 13:37:00,78.1,12.0,0.00,SE,130,5.4,10.5,8,0.00,,---,0.00,VWS V14.00,2013-06-11 19:37:00,
2013-06-11 13:38:00,78.1,12.0,0.00,SSE,159,5.8,8.7,8,0.00,,---,0.00,VWS V14.00,2013-06-11 19:38:00,
2013-06-11 13:39:00,78.1,12.0,0.00,ENE,70,7.6,10.1,8,0.00,,---,0.00,VWS V14.00,2013-06-11 19:39:00,
2013-06-11 13:40:00,78.1,12.0,0.00,SE,133,5.8,5.8,8,0.00,,---,0.00,VWS V14.00,2013-06-11 19:40:00,
2013-06-11 13:42:00,78.1,17.1,0.00,East,98,4.0,8.7,10,0.00,,---,0.00,VWS V14.00,2013-06-11 19:42:00,
2013-06-11 13:43:00,78.1,17.1,0.00,SE,142,11.0,11.0,10,0.00,,---,0.00,VWS V14.00,2013-06-11 19:43:00,
2013-06-11 13:44:00,78.1,17.1,0.00,North,9,5.4,10.1,10,0.00,,---,0.00,VWS V14.00,2013-06-11 19:44:00,
2013-06-11 13:45:00,78.1,17.1,0.00,SE,127,6.3,10.1,10,0.00,,---,0.00,VWS V14.00,2013-06-11 19:45:00,
2013-06-11 13:47:00,78.1,17.1,0.00,ENE,74,6.3,6.3,10,0.00,,---,0.00,VWS V14.00,2013-06-11 19:47:00,
2013-06-11 13:48:00,78.1,17.1,0.00,NE,45,6.3,8.1,10,0.00,,---,0.00,VWS V14.00,2013-06-11 19:48:00,
2013-06-11 13:50:00,78.3,17.3,0.00,ESE,122,5.8,6.3,10,0.00,,---,0.00,VWS V14.00,2013-06-11 19:50:00,
2013-06-11 13:52:00,78.3,17.3,0.00,SE,141,6.3,6.7,10,0.00,,---,0.00,VWS V14.00,2013-06-11 19:52:00,
2013-06-11 13:53:00,78.3,17.3,0.00,SSE,159,6.3,6.3,10,0.00,,---,0.00,VWS V14.00,2013-06-11 19:53:00,
2013-06-11 13:54:00,78.4,17.4,0.00,East,100,8.1,8.1,10,0.00,,---,0.00,VWS V14.00,2013-06-11 19:54:00,
2013-06-11 13:55:00,78.4,17.4,0.00,ENE,70,10.1,10.1,10,0.00,,---,0.00,VWS V14.00,2013-06-11 19:55:00,
2013-06-11 13:57:00,78.4,12.3,0.00,ESE,111,5.4,8.7,8,0.00,,---,0.00,VWS V14.00,2013-06-11 19:57:00,
2013-06-11 13:58:00,78.4,17.4,0.00,East,95,5.8,8.1,10,0.00,,---,0.00,VWS V14.00,2013-06-11 19:58:00,
2013-06-11 13:59:00,78.4,17.4,0.00,SE,129,6.3,6.3,10,0.00,,---,0.00,VWS V14.00,2013-06-11 19:59:00,
2013-06-11 14:00:00,78.4,17.4,0.00,NE,45,3.6,7.6,10,0.00,,---,0.00,VWS V14.00,2013-06-11 20:00:00,
2013-06-11 14:01:00,78.4,17.4,0.00,East,85,4.0,5.4,10,0.00,,---,0.00,VWS V14.00,2013-06-11 20:01:00,
2013-06-11 14:02:00,78.4,12.3,0.00,SE,127,5.4,7.6,8,0.00,,---,0.00,VWS V14.00,2013-06-11 20:02:00,
2013-06-11 14:03:00,78.4,12.3,0.00,SSE,155,5.4,8.7,8,0.00,,---,0.00,VWS V14.00,2013-06-11 20:03:00,
2013-06-11 14:04:00,78.6,12.4,0.00,ESE,105,5.4,8.1,8,0.00,,---,0.00,VWS V14.00,2013-06-11 20:04:00,
2013-06-11 14:05:00,78.6,17.5,0.00,East,94,6.3,6.3,10,0.00,,---,0.00,VWS V14.00,2013-06-11 20:05:00,
2013-06-11 14:06:00,78.6,17.5,0.00,WNW,299,6.3,10.1,10,0.00,,---,0.00,VWS V14.00,2013-06-11 20:06:00,
2013-06-11 14:07:00,78.8,17.7,0.00,ESE,112,3.1,4.9,10,0.00,,---,0.00,VWS V14.00,2013-06-11 20:07:00,
2013-06-11 14:08:00,78.8,17.7,0.00,SE,130,5.4,5.4,10,0.00,,---,0.00,VWS V14.00,2013-06-11 20:08:00,
2013-06-11 14:09:00,78.8,17.7,0.00,ENE,77,3.1,10.1,10,0.00,,---,0.00,VWS V14.00,2013-06-11 20:09:00,
2013-06-11 14:10:00,79.0,17.8,0.00,ENE,73,5.8,5.8,10,0.00,,---,0.00,VWS V14.00,2013-06-11 20:10:00,
2013-06-11 14:11:00,79.0,17.8,0.00,ENE,77,5.8,8.1,10,0.00,,---,0.00,VWS V14.00,2013-06-11 20:11:00,
2013-06-11 14:12:00,79.0,17.8,0.00,SE,133,8.1,8.1,10,0.00,,---,0.00,VWS V14.00,2013-06-11 20:12:00,
2013-06-11 14:13:00,79.2,18.0,0.00,East,86,3.6,4.0,10,0.00,,---,0.00,VWS V14.00,2013-06-11 20:13:00,
2013-06-11 14:14:00,79.2,18.0,0.00,ESE,123,8.7,8.7,10,0.00,,---,0.00,VWS V14.00,2013-06-11 20:14:00,
2013-06-11 14:15:00,79.2,18.0,0.00,SE,134,5.4,8.7,10,0.00,,---,0.00,VWS V14.00,2013-06-11 20:15:00,
2013-06-11 14:16:00,79.3,18.1,0.00,East,85,5.4,5.4,10,0.00,,---,0.00,VWS V14.00,2013-06-11 20:16:00,
2013-06-11 14:17:00,79.3,18.1,0.00,ESE,118,6.3,8.3,10,0.00,,---,0.00,VWS V14.00,2013-06-11 20:17:00,
2013-06-11 14:18:00,79.5,18.2,0.00,East,96,10.1,10.1,10,0.00,,---,0.00,VWS V14.00,2013-06-11 20:18:00,
2013-06-11 14:20:00,79.5,18.2,0.00,SE,130,5.4,10.1,10,0.00,,---,0.00,VWS V14.00,2013-06-11 20:20:00,
2013-06-11 14:22:00,79.7,18.4,0.00,ENE,65,8.1,8.1,10,0.00,,---,0.00,VWS V14.00,2013-06-11 20:22:00,
2013-06-11 14:23:00,79.7,18.4,0.00,East,89,8.3,8.7,10,0.00,,---,0.00,VWS V14.00,2013-06-11 20:23:00,
2013-06-11 14:25:00,79.7,18.4,0.00,SSE,147,5.4,8.1,10,0.00,,---,0.00,VWS V14.00,2013-06-11 20:25:00,
2013-06-11 14:27:00,79.7,18.4,0.00,NE,56,5.8,7.6,10,0.00,,---,0.00,VWS V14.00,2013-06-11 20:27:00,
2013-06-11 14:28:00,79.7,18.4,0.00,East,90,6.3,6.3,10,0.00,,---,0.00,VWS V14.00,2013-06-11 20:28:00,
2013-06-11 14:30:00,79.7,18.4,0.00,SE,127,5.4,7.6,10,0.00,,---,0.00,VWS V14.00,2013-06-11 20:30:00,
2013-06-11 14:32:00,79.9,18.5,0.00,East,93,8.1,8.3,10,0.00,,---,0.00,VWS V14.00,2013-06-11 20:32:00,
2013-06-11 14:33:00,79.9,18.5,0.00,East,93,7.2,7.2,10,0.00,,---,0.00,VWS V14.00,2013-06-11 20:33:00,
2013-06-11 14:35:00,80.1,18.6,0.00,NE,50,7.6,7.6,10,0.00,,---,0.00,VWS V14.00,2013-06-11 20:35:00,
2013-06-11 14:37:00,80.1,18.6,0.00,SE,124,3.1,9.6,10,0.00,,---,0.00,VWS V14.00,2013-06-11 20:37:00,
2013-06-11 14:38:00,80.2,18.8,0.00,SE,137,6.3,7.2,10,0.00,,---,0.00,VWS V14.00,2013-06-11 20:38:00,
2013-06-11 14:40:00,80.2,18.8,0.00,SE,141,5.8,7.6,10,0.00,,---,0.00,VWS V14.00,2013-06-11 20:40:00,
2013-06-11 14:41:00,80.2,18.8,0.00,SE,141,4.0,5.8,10,0.00,,---,0.00,VWS V14.00,2013-06-11 20:41:00,
2013-06-11 14:42:00,80.4,18.9,0.00,NE,39,8.7,8.7,10,0.00,,---,0.00,VWS V14.00,2013-06-11 20:42:00,
2013-06-11 14:43:00,80.4,18.9,0.00,SE,142,5.4,8.7,10,0.00,,---,0.00,VWS V14.00,2013-06-11 20:43:00,
2013-06-11 14:45:00,80.6,16.6,0.00,West,276,2.2,5.4,9,0.00,,---,0.00,VWS V14.00,2013-06-11 20:45:00,
2013-06-11 14:46:00,80.6,16.6,0.00,East,83,3.1,5.4,9,0.00,,---,0.00,VWS V14.00,2013-06-11 20:46:00,
2013-06-11 14:47:00,80.8,16.7,0.00,WNW,288,8.1,8.1,9,0.00,,---,0.00,VWS V14.00,2013-06-11 20:47:00,
2013-06-11 14:48:00,80.8,16.7,0.00,East,92,6.3,8.1,9,0.00,,---,0.00,VWS V14.00,2013-06-11 20:48:00,
2013-06-11 14:50:00,81.0,16.9,0.00,NNE,20,2.2,2.7,9,0.00,,---,0.00,VWS V14.00,2013-06-11 20:50:00,
2013-06-11 14:51:00,81.0,16.9,0.00,ENE,61,5.4,7.2,9,0.00,,---,0.00,VWS V14.00,2013-06-11 20:51:00,
2013-06-11 14:53:00,81.1,17.0,0.00,ENE,63,5.4,5.4,9,0.00,,---,0.00,VWS V14.00,2013-06-11 20:53:00,
2013-06-11 14:54:00,81.1,17.0,0.00,ESE,104,8.3,8.3,9,0.00,,---,0.00,VWS V14.00,2013-06-11 20:54:00,
2013-06-11 14:56:00,81.3,17.1,0.00,ESE,122,8.7,8.7,9,0.00,,---,0.00,VWS V14.00,2013-06-11 20:56:00,
2013-06-11 14:58:00,81.5,17.3,0.00,ESE,102,8.3,12.3,9,0.00,,---,0.00,VWS V14.00,2013-06-11 20:58:00,
2013-06-11 14:59:00,81.5,17.3,0.00,SSE,163,4.9,5.8,9,0.00,,---,0.00,VWS V14.00,2013-06-11 20:59:00,
2013-06-11 15:01:00,81.7,17.4,0.00,SE,130,8.1,8.1,9,0.00,,---,0.00,VWS V14.00,2013-06-11 21:01:00,
2013-06-11 15:02:00,81.7,17.4,0.00,NE,52,5.8,5.8,9,0.00,,---,0.00,VWS V14.00,2013-06-11 21:02:00,
2013-06-11 15:03:00,81.9,17.6,0.00,East,101,8.7,8.7,9,0.00,,---,0.00,VWS V14.00,2013-06-11 21:03:00,
2013-06-11 15:04:00,81.9,17.6,0.00,NE,54,6.3,10.5,9,0.00,,---,0.00,VWS V14.00,2013-06-11 21:04:00,
2013-06-11 15:06:00,81.9,17.6,0.00,NE,55,6.3,6.3,9,0.00,,---,0.00,VWS V14.00,2013-06-11 21:06:00,
2013-06-11 15:07:00,81.9,17.6,0.00,South,171,7.6,7.6,9,0.00,,---,0.00,VWS V14.00,2013-06-11 21:07:00,
2013-06-11 15:08:00,82.0,17.7,0.00,East,82,7.6,8.7,9,0.00,,---,0.00,VWS V14.00,2013-06-11 21:08:00,
2013-06-11 15:09:00,82.0,17.7,0.00,ESE,111,4.0,7.6,9,0.00,,---,0.00,VWS V14.00,2013-06-11 21:09:00,
2013-06-11 15:12:00,82.2,17.8,0.00,ESE,105,11.9,11.9,9,0.00,,---,0.00,VWS V14.00,2013-06-11 21:12:00,
2013-06-11 15:13:00,82.2,17.8,0.00,ESE,121,6.3,6.3,9,0.00,,---,0.00,VWS V14.00,2013-06-11 21:13:00,
2013-06-11 15:14:00,82.2,17.8,0.00,East,97,8.3,8.3,9,0.00,,---,0.00,VWS V14.00,2013-06-11 21:14:00,
2013-06-11 15:17:00,82.2,17.8,0.00,NE,43,5.4,8.7,9,0.00,,---,0.00,VWS V14.00,2013-06-11 21:17:00,
2013-06-11 15:18:00,82.2,17.8,0.00,NE,51,10.1,10.1,9,0.00,,---,0.00,VWS V14.00,2013-06-11 21:18:00,
2013-06-11 15:19:00,82.2,17.8,0.00,East,79,6.3,10.1,9,0.00,,---,0.00,VWS V14.00,2013-06-11 21:19:00,
2013-06-11 15:22:00,82.2,17.8,0.00,ESE,112,7.6,7.6,9,0.00,,---,0.00,VWS V14.00,2013-06-11 21:22:00,
2013-06-11 15:23:00,82.2,17.8,0.00,SE,140,8.1,8.1,9,0.00,,---,0.00,VWS V14.00,2013-06-11 21:23:00,
2013-06-11 15:24:00,82.2,17.8,0.00,ESE,116,6.3,9.6,9,0.00,,---,0.00,VWS V14.00,2013-06-11 21:24:00,
2013-06-11 15:27:00,82.0,17.7,0.00,East,97,6.3,7.6,9,0.00,,---,0.00,VWS V14.00,2013-06-11 21:27:00,
2013-06-11 15:29:00,82.0,17.7,0.00,SE,128,5.4,8.3,9,0.00,,---,0.00,VWS V14.00,2013-06-11 21:29:00,
2013-06-11 15:32:00,82.2,17.8,0.00,SE,129,6.3,6.3,9,0.00,,---,0.00,VWS V14.00,2013-06-11 21:32:00,
2013-06-11 15:33:00,82.2,17.8,0.00,ENE,77,5.8,6.3,9,0.00,,---,0.00,VWS V14.00,2013-06-11 21:33:00,
2013-06-11 15:34:00,82.2,17.8,0.00,ESE,104,8.7,8.7,9,0.00,,---,0.00,VWS V14.00,2013-06-11 21:34:00,
2013-06-11 15:35:00,82.2,17.8,0.00,East,92,4.9,6.3,9,0.00,,---,0.00,VWS V14.00,2013-06-11 21:35:00,
2013-06-11 15:38:00,82.2,17.8,0.00,ENE,60,2.7,4.0,9,0.00,,---,0.00,VWS V14.00,2013-06-11 21:38:00,
2013-06-11 15:39:00,82.4,18.0,0.00,ESE,111,5.8,7.6,9,0.00,,---,0.00,VWS V14.00,2013-06-11 21:39:00,
2013-06-11 15:40:00,82.4,18.0,0.00,SE,127,7.6,8.3,9,0.00,,---,0.00,VWS V14.00,2013-06-11 21:40:00,
2013-06-11 15:43:00,82.6,18.1,0.00,SE,136,3.6,8.1,9,0.00,,---,0.00,VWS V14.00,2013-06-11 21:43:00,
2013-06-11 15:44:00,82.6,18.1,0.00,East,82,9.6,10.5,9,0.00,,---,0.00,VWS V14.00,2013-06-11 21:44:00,
2013-06-11 15:45:00,82.6,18.1,0.00,ESE,122,15.4,15.4,9,0.00,,---,0.00,VWS V14.00,2013-06-11 21:45:00,
2013-06-11 15:48:00,82.6,18.1,0.00,ESE,112,5.4,5.8,9,0.00,,---,0.00,VWS V14.00,2013-06-11 21:48:00,
2013-06-11 15:49:00,82.8,18.2,0.00,NNE,18,4.9,5.8,9,0.00,,---,0.00,VWS V14.00,2013-06-11 21:49:00,
2013-06-11 15:50:00,82.8,18.2,0.00,ESE,118,4.9,4.9,9,0.00,,---,0.00,VWS V14.00,2013-06-11 21:50:00,
2013-06-11 15:53:00,82.9,18.4,0.00,ENE,76,6.7,9.2,9,0.00,,---,0.00,VWS V14.00,2013-06-11 21:53:00,
2013-06-11 15:54:00,82.9,18.4,0.00,NE,43,7.6,10.1,9,0.00,,---,0.00,VWS V14.00,2013-06-11 21:54:00,
2013-06-11 15:55:00,82.9,18.4,0.00,East,93,5.8,6.7,9,0.00,,---,0.00,VWS V14.00,2013-06-11 21:55:00,
2013-06-11 15:58:00,82.9,18.4,0.00,ESE,111,5.8,6.3,9,0.00,,---,0.00,VWS V14.00,2013-06-11 21:58:00,
2013-06-11 15:59:00,82.9,18.4,0.00,ESE,115,7.2,15.0,9,0.00,,---,0.00,VWS V14.00,2013-06-11 21:59:00,
2013-06-11 16:00:00,82.9,18.4,0.00,ESE,118,5.8,7.2,9,0.00,,---,0.00,VWS V14.00,2013-06-11 22:00:00,
2013-06-11 16:03:00,82.9,18.4,0.00,East,95,8.3,8.3,9,0.00,,---,0.00,VWS V14.00,2013-06-11 22:03:00,
2013-06-11 16:04:00,82.9,18.4,0.00,ESE,106,8.7,8.7,9,0.00,,---,0.00,VWS V14.00,2013-06-11 22:04:00,
2013-06-11 16:05:00,82.9,18.4,0.00,SE,131,3.6,8.1,9,0.00,,---,0.00,VWS V14.00,2013-06-11 22:05:00,
2013-06-11 16:07:00,82.9,18.4,0.00,East,85,4.0,5.4,9,0.00,,---,0.00,VWS V14.00,2013-06-11 22:07:00,
2013-06-11 16:08:00,82.8,18.2,0.00,East,91,5.8,8.3,9,0.00,,---,0.00,VWS V14.00,2013-06-11 22:08:00,
2013-06-11 16:09:00,82.8,18.2,0.00,SE,128,8.7,8.7,9,0.00,,---,0.00,VWS V14.00,2013-06-11 22:09:00,
2013-06-11 16:10:00,82.8,18.2,0.00,NNE,29,8.1,8.1,9,0.00,,---,0.00,VWS V14.00,2013-06-11 22:10:00,
2013-06-11 16:12:00,82.6,18.1,0.00,SE,124,5.8,8.1,9,0.00,,---,0.00,VWS V14.00,2013-06-11 22:12:00,
2013-06-11 16:13:00,82.6,18.1,0.00,ESE,107,6.3,10.1,9,0.00,,---,0.00,VWS V14.00,2013-06-11 22:13:00,
2013-06-11 16:14:00,82.6,18.1,0.00,East,90,4.9,5.8,9,0.00,,---,0.00,VWS V14.00,2013-06-11 22:14:00,
2013-06-11 16:15:00,82.4,18.0,0.00,SE,125,6.3,6.3,9,0.00,,---,0.00,VWS V14.00,2013-06-11 22:15:00,
2013-06-11 16:17:00,82.4,18.0,0.00,East,81,6.3,6.3,9,0.00,,---,0.00,VWS V14.00,2013-06-11 22:17:00,
2013-06-11 16:19:00,82.4,18.0,0.00,SE,127,3.6,6.3,9,0.00,,---,0.00,VWS V14.00,2013-06-11 22:19:00,
2013-06-11 16:20:00,82.4,18.0,0.00,ENE,74,5.4,7.2,9,0.00,,---,0.00,VWS V14.00,2013-06-11 22:20:00,
2013-06-11 16:21:00,82.4,18.0,0.00,SE,133,5.4,5.4,9,0.00,,---,0.00,VWS V14.00,2013-06-11 22:21:00,
2013-06-11 16:22:00,82.2,17.8,0.00,SE,134,7.6,7.6,9,0.00,,---,0.00,VWS V14.00,2013-06-11 22:22:00,
2013-06-11 16:24:00,82.2,17.8,0.00,East,101,8.3,8.3,9,0.00,,---,0.00,VWS V14.00,2013-06-11 22:24:00,
2013-06-11 16:25:00,82.2,17.8,0.00,ESE,120,4.9,4.9,9,0.00,,---,0.00,VWS V14.00,2013-06-11 22:25:00,
2013-06-11 16:26:00,82.2,17.8,0.00,SW,216,3.6,7.2,9,0.00,,---,0.00,VWS V14.00,2013-06-11 22:26:00,
2013-06-11 16:27:00,82.2,17.8,0.00,ESE,102,3.1,7.6,9,0.00,,---,0.00,VWS V14.00,2013-06-11 22:27:00,
2013-06-11 16:29:00,82.2,17.8,0.00,ESE,111,7.6,7.6,9,0.00,,---,0.00,VWS V14.00,2013-06-11 22:29:00,
2013-06-11 16:30:00,82.2,17.8,0.00,East,81,4.0,5.4,9,0.00,,---,0.00,VWS V14.00,2013-06-11 22:30:00,
2013-06-11 16:31:00,82.2,17.8,0.00,ESE,114,6.3,8.1,9,0.00,,---,0.00,VWS V14.00,2013-06-11 22:31:00,
2013-06-11 16:32:00,82.2,17.8,0.00,SSE,160,5.4,6.7,9,0.00,,---,0.00,VWS V14.00,2013-06-11 22:32:00,
2013-06-11 16:34:00,82.4,18.0,0.00,ESE,105,6.3,6.3,9,0.00,,---,0.00,VWS V14.00,2013-06-11 22:34:00,
2013-06-11 16:35:00,82.4,18.0,0.00,SE,140,10.5,10.5,9,0.00,,---,0.00,VWS V14.00,2013-06-11 22:35:00,
2013-06-11 16:37:00,82.2,17.8,0.00,ESE,116,8.3,11.0,9,0.00,,---,0.00,VWS V14.00,2013-06-11 22:37:00,
2013-06-11 16:39:00,82.2,17.8,0.00,SE,128,5.8,5.8,9,0.00,,---,0.00,VWS V14.00,2013-06-11 22:39:00,
2013-06-11 16:40:00,82.0,17.7,0.00,ENE,61,10.1,10.5,9,0.00,,---,0.00,VWS V14.00,2013-06-11 22:40:00,
2013-06-11 16:41:00,82.0,17.7,0.00,ESE,107,8.1,8.3,9,0.00,,---,0.00,VWS V14.00,2013-06-11 22:41:00,
2013-06-11 16:42:00,82.0,17.7,0.00,East,100,6.7,10.1,9,0.00,,---,0.00,VWS V14.00,2013-06-11 22:42:00,
2013-06-11 16:44:00,81.9,17.6,0.00,ESE,122,8.1,8.3,9,0.00,,---,0.00,VWS V14.00,2013-06-11 22:44:00,
2013-06-11 16:45:00,81.9,17.6,0.00,ESE,104,9.2,9.2,9,0.00,,---,0.00,VWS V14.00,2013-06-11 22:45:00,
2013-06-11 16:46:00,81.7,17.4,0.00,SE,125,8.1,10.1,9,0.00,,---,0.00,VWS V14.00,2013-06-11 22:46:00,
2013-06-11 16:47:00,81.7,17.4,0.00,South,177,10.5,15.4,9,0.00,,---,0.00,VWS V14.00,2013-06-11 22:47:00,
2013-06-11 16:48:00,81.5,17.3,0.00,South,184,10.1,10.5,9,0.00,,---,0.00,VWS V14.00,2013-06-11 22:48:00,
2013-06-11 16:49:00,81.5,17.3,0.00,SE,126,8.7,9.2,9,0.00,,---,0.00,VWS V14.00,2013-06-11 22:49:00,
2013-06-11 16:50:00,81.3,17.1,0.00,SE,138,5.8,13.2,9,0.00,,---,0.00,VWS V14.00,2013-06-11 22:50:00,
2013-06-11 16:51:00,81.3,17.1,0.00,SE,144,5.4,8.1,9,0.00,,---,0.00,VWS V14.00,2013-06-11 22:51:00,
2013-06-11 16:52:00,81.3,17.1,0.00,ENE,66,5.8,10.5,9,0.00,,---,0.00,VWS V14.00,2013-06-11 22:52:00,
2013-06-11 16:53:00,81.1,17.0,0.00,ESE,109,6.7,6.7,9,0.00,,---,0.00,VWS V14.00,2013-06-11 22:53:00,
2013-06-11 16:55:00,81.0,16.9,0.00,NW,320,6.3,6.3,9,0.00,,---,0.00,VWS V14.00,2013-06-11 22:55:00,
2013-06-11 16:56:00,81.0,16.9,0.00,NNE,15,8.3,11.0,9,0.00,,---,0.00,VWS V14.00,2013-06-11 22:56:00,
2013-06-11 16:57:00,80.8,16.7,0.00,East,85,5.8,7.6,9,0.00,,---,0.00,VWS V14.00,2013-06-11 22:57:00,
2013-06-11 16:59:00,80.8,16.7,0.00,SE,140,8.1,8.1,9,0.00,,---,0.00,VWS V14.00,2013-06-11 22:59:00,
2013-06-11 17:00:00,80.8,16.7,0.00,East,97,4.0,4.9,9,0.00,,---,0.00,VWS V14.00,2013-06-11 23:00:00,
2013-06-11 17:01:00,80.6,16.6,0.00,ENE,73,0.0,4.0,9,0.00,,---,0.00,VWS V14.00,2013-06-11 23:01:00,
2013-06-11 17:02:00,80.6,16.6,0.00,East,100,3.6,5.4,9,0.00,,---,0.00,VWS V14.00,2013-06-11 23:02:00,
2013-06-11 17:04:00,80.6,16.6,0.00,SE,136,5.4,8.1,9,0.00,,---,0.00,VWS V14.00,2013-06-11 23:04:00,
2013-06-11 17:05:00,80.6,16.6,0.00,East,100,5.4,5.8,9,0.00,,---,0.00,VWS V14.00,2013-06-11 23:05:00,
2013-06-11 17:06:00,80.6,16.6,0.00,ENE,75,6.3,6.3,9,0.00,,---,0.00,VWS V14.00,2013-06-11 23:06:00,
2013-06-11 17:07:00,80.4,18.9,0.00,ESE,116,5.4,8.3,10,0.00,,---,0.00,VWS V14.00,2013-06-11 23:07:00,
2013-06-11 17:09:00,80.4,18.9,0.00,ESE,111,4.0,5.4,10,0.00,,---,0.00,VWS V14.00,2013-06-11 23:09:00,
2013-06-11 17:10:00,80.2,18.8,0.00,East,94,7.6,7.6,10,0.00,,---,0.00,VWS V14.00,2013-06-11 23:10:00,
2013-06-11 17:11:00,80.2,18.8,0.00,SE,141,4.9,5.4,10,0.00,,---,0.00,VWS V14.00,2013-06-11 23:11:00,
2013-06-11 17:13:00,80.2,18.8,0.00,East,101,4.0,5.4,10,0.00,,---,0.00,VWS V14.00,2013-06-11 23:13:00,
2013-06-11 17:14:00,80.2,18.8,0.00,South,178,7.6,8.3,10,0.00,,---,0.00,VWS V14.00,2013-06-11 23:14:00,
2013-06-11 17:15:00,80.1,18.6,0.00,East,97,8.1,8.1,10,0.00,,---,0.00,VWS V14.00,2013-06-11 23:15:00,
2013-06-11 17:16:00,80.1,18.6,0.00,ESE,107,8.1,8.3,10,0.00,,---,0.00,VWS V14.00,2013-06-11 23:16:00,
2013-06-11 17:18:00,80.1,18.6,0.00,ESE,111,5.8,7.2,10,0.00,,---,0.00,VWS V14.00,2013-06-11 23:18:00,
2013-06-11 17:19:00,79.9,18.5,0.00,East,97,10.5,13.2,10,0.00,,---,0.00,VWS V14.00,2013-06-11 23:19:00,
2013-06-11 17:20:00,79.9,18.5,0.00,East,95,11.0,11.0,10,0.00,,---,0.00,VWS V14.00,2013-06-11 23:20:00,
2013-06-11 17:22:00,79.9,18.5,0.00,ENE,72,6.3,7.6,10,0.00,,---,0.00,VWS V14.00,2013-06-11 23:22:00,
2013-06-11 17:23:00,79.7,18.4,0.00,ESE,119,8.1,8.1,10,0.00,,---,0.00,VWS V14.00,2013-06-11 23:23:00,
2013-06-11 17:24:00,79.7,18.4,0.00,East,83,6.3,6.3,10,0.00,,---,0.00,VWS V14.00,2013-06-11 23:24:00,
2013-06-11 17:25:00,79.7,18.4,0.00,ENE,65,5.4,6.3,10,0.00,,---,0.00,VWS V14.00,2013-06-11 23:25:00,
2013-06-11 17:27:00,79.5,18.2,0.00,SE,146,6.3,6.3,10,0.00,,---,0.00,VWS V14.00,2013-06-11 23:27:00,
2013-06-11 17:28:00,79.5,18.2,0.00,SE,141,6.3,8.7,10,0.00,,---,0.00,VWS V14.00,2013-06-11 23:28:00,
2013-06-11 17:30:00,79.3,18.1,0.00,ESE,112,5.8,7.6,10,0.00,,---,0.00,VWS V14.00,2013-06-11 23:30:00,
2013-06-11 17:32:00,79.3,18.1,0.00,SE,134,3.1,5.8,10,0.00,,---,0.00,VWS V14.00,2013-06-11 23:32:00,
2013-06-11 17:33:00,79.3,18.1,0.00,SSE,166,2.7,3.6,10,0.00,,---,0.00,VWS V14.00,2013-06-11 23:33:00,
2013-06-11 17:35:00,79.3,18.1,0.00,SE,144,2.7,3.6,10,0.00,,---,0.00,VWS V14.00,2013-06-11 23:35:00,
2013-06-11 17:36:00,79.2,18.0,0.00,East,84,4.0,4.0,10,0.00,,---,0.00,VWS V14.00,2013-06-11 23:36:00,
2013-06-11 17:37:00,79.2,18.0,0.00,WSW,251,2.2,3.6,10,0.00,,---,0.00,VWS V14.00,2013-06-11 23:37:00,
2013-06-11 17:38:00,79.2,18.0,0.00,ESE,117,7.2,7.2,10,0.00,,---,0.00,VWS V14.00,2013-06-11 23:38:00,
2013-06-11 17:40:00,79.2,18.0,0.00,ESE,120,3.1,5.8,10,0.00,,---,0.00,VWS V14.00,2013-06-11 23:40:00,
2013-06-11 17:41:00,79.2,18.0,0.00,ESE,111,3.6,5.8,10,0.00,,---,0.00,VWS V14.00,2013-06-11 23:41:00,
2013-06-11 17:42:00,79.2,18.0,0.00,SE,136,6.3,6.3,10,0.00,,---,0.00,VWS V14.00,2013-06-11 23:42:00,
2013-06-11 17:44:00,79.2,18.0,0.00,SE,127,4.0,4.0,10,0.00,,---,0.00,VWS V14.00,2013-06-11 23:44:00,
2013-06-11 17:45:00,79.0,17.8,0.00,SE,136,2.7,4.9,10,0.00,,---,0.00,VWS V14.00,2013-06-11 23:45:00,
2013-06-11 17:46:00,79.0,17.8,0.00,East,89,4.0,4.0,10,0.00,,---,0.00,VWS V14.00,2013-06-11 23:46:00,
2013-06-11 17:47:00,79.0,17.8,0.00,East,91,3.6,5.8,10,0.00,,---,0.00,VWS V14.00,2013-06-11 23:47:00,
2013-06-11 17:49:00,79.0,17.8,0.00,SE,139,6.3,6.3,10,0.00,,---,0.00,VWS V14.00,2013-06-11 23:49:00,
2013-06-11 17:50:00,78.8,17.7,0.00,ENE,76,5.4,5.4,10,0.00,,---,0.00,VWS V14.00,2013-06-11 23:50:00,
2013-06-11 17:51:00,78.8,17.7,0.00,ENE,78,6.7,6.7,10,0.00,,---,0.00,VWS V14.00,2013-06-11 23:51:00,
2013-06-11 17:52:00,78.8,17.7,0.00,SSE,167,5.8,5.8,10,0.00,,---,0.00,VWS V14.00,2013-06-11 23:52:00,
2013-06-11 17:54:00,78.6,17.5,0.00,SE,144,7.6,8.3,10,0.00,,---,0.00,VWS V14.00,2013-06-11 23:54:00,
2013-06-11 17:55:00,78.6,17.5,0.00,East,85,5.8,11.0,10,0.00,,---,0.00,VWS V14.00,2013-06-11 23:55:00,
2013-06-11 17:57:00,78.6,17.5,0.00,SSE,149,5.8,5.8,10,0.00,,---,0.00,VWS V14.00,2013-06-11 23:57:00,
2013-06-11 17:59:00,78.4,17.4,0.00,ESE,115,8.3,8.3,10,0.00,,---,0.00,VWS V14.00,2013-06-11 23:59:00,
2013-06-11 18:00:00,78.4,17.4,0.00,South,170,7.2,10.1,10,0.00,,---,0.00,VWS V14.00,2013-06-12 00:00:00,
2013-06-11 18:02:00,78.3,17.3,0.00,East,99,6.7,6.7,10,0.00,,---,0.00,VWS V14.00,2013-06-12 00:02:00,
2013-06-11 18:04:00,78.1,17.1,0.00,ESE,112,4.0,10.5,10,0.00,,---,0.00,VWS V14.00,2013-06-12 00:04:00,
2013-06-11 18:06:00,78.1,17.1,0.00,East,89,10.1,10.1,10,0.00,,---,0.00,VWS V14.00,2013-06-12 00:06:00,
2013-06-11 18:07:00,77.9,17.0,0.00,SE,137,8.1,8.1,10,0.00,,---,0.00,VWS V14.00,2013-06-12 00:07:00,
2013-06-11 18:09:00,77.7,16.9,0.00,ENE,69,9.6,12.3,10,0.00,,---,0.00,VWS V14.00,2013-06-12 00:09:00,
2013-06-11 18:11:00,77.7,16.9,0.00,East,81,5.8,5.8,10,0.00,,---,0.00,VWS V14.00,2013-06-12 00:11:00,
2013-06-11 18:12:00,77.5,16.7,0.00,ESE,120,7.6,10.5,10,0.00,,---,0.00,VWS V14.00,2013-06-12 00:12:00,
2013-06-11 18:14:00,77.4,16.6,0.00,ESE,103,8.7,10.1,10,0.00,,---,0.00,VWS V14.00,2013-06-12 00:14:00,
2013-06-11 18:16:00,77.4,11.5,0.00,SE,126,8.3,10.1,8,0.00,,---,0.00,VWS V14.00,2013-06-12 00:16:00,
2013-06-11 18:17:00,77.4,11.5,0.00,SSE,154,7.6,10.1,8,0.00,,---,0.00,VWS V14.00,2013-06-12 00:17:00,
2013-06-11 18:18:00,77.2,11.4,0.00,SE,125,3.6,5.8,8,0.00,,---,0.00,VWS V14.00,2013-06-12 00:18:00,
2013-06-11 18:19:00,77.2,11.4,0.00,NNE,16,5.4,9.2,8,0.00,,---,0.00,VWS V14.00,2013-06-12 00:19:00,
2013-06-11 18:21:00,77.2,16.5,0.00,ESE,115,8.1,11.9,10,0.00,,---,0.00,VWS V14.00,2013-06-12 00:21:00,
2013-06-11 18:22:00,77.0,11.2,0.00,ESE,118,5.4,11.9,8,0.00,,---,0.00,VWS V14.00,2013-06-12 00:22:00,
2013-06-11 18:23:00,77.0,11.2,0.00,ESE,116,8.7,12.3,8,0.00,,---,0.00,VWS V14.00,2013-06-12 00:23:00,
2013-06-11 18:25:00,76.8,11.1,0.00,SE,138,12.3,12.3,8,0.00,,---,0.00,VWS V14.00,2013-06-12 00:25:00,
2013-06-11 18:27:00,76.6,11.0,0.00,ESE,109,13.2,13.2,8,0.00,,---,0.00,VWS V14.00,2013-06-12 00:27:00,
2013-06-11 18:28:00,76.5,10.8,0.00,ESE,122,7.6,7.6,8,0.00,,---,0.00,VWS V14.00,2013-06-12 00:28:00,
2013-06-11 18:30:00,76.3,10.7,0.00,SE,145,10.1,10.1,8,0.00,,---,0.00,VWS V14.00,2013-06-12 00:30:00,
2013-06-11 18:32:00,76.1,10.6,0.00,East,80,8.1,8.3,8,0.00,,---,0.00,VWS V14.00,2013-06-12 00:32:00,
2013-06-11 18:33:00,76.1,10.6,0.00,ENE,71,8.3,11.0,8,0.00,,---,0.00,VWS V14.00,2013-06-12 00:33:00,
2013-06-11 18:35:00,75.9,10.4,0.00,SW,220,7.6,11.0,8,0.00,,---,0.00,VWS V14.00,2013-06-12 00:35:00,
2013-06-11 18:37:00,75.7,10.3,0.00,SE,135,4.0,8.1,8,0.00,,---,0.00,VWS V14.00,2013-06-12 00:37:00,
2013-06-11 18:38:00,75.7,10.3,0.00,ESE,102,11.9,11.9,8,0.00,,---,0.00,VWS V14.00,2013-06-12 00:38:00,
2013-06-11 18:41:00,75.4,10.0,0.00,ENE,74,5.8,8.3,8,0.00,,---,0.00,VWS V14.00,2013-06-12 00:41:00,
2013-06-11 18:42:00,75.4,10.0,0.00,ENE,72,8.1,10.1,8,0.00,,---,0.00,VWS V14.00,2013-06-12 00:42:00,
2013-06-11 18:43:00,75.2,9.9,0.00,ESE,108,10.1,10.1,8,0.00,,---,0.00,VWS V14.00,2013-06-12 00:43:00,
2013-06-11 18:46:00,75.0,9.8,0.00,ENE,58,2.7,4.9,8,0.00,,---,0.00,VWS V14.00,2013-06-12 00:46:00,
2013-06-11 18:47:00,75.0,9.8,0.00,East,101,3.6,6.3,8,0.00,,---,0.00,VWS V14.00,2013-06-12 00:47:00,
2013-06-11 18:48:00,74.8,9.6,0.00,East,95,5.4,5.4,8,0.00,,---,0.00,VWS V14.00,2013-06-12 00:48:00,
2013-06-11 18:51:00,74.8,9.6,0.00,SSE,150,3.6,7.6,8,0.00,,---,0.00,VWS V14.00,2013-06-12 00:51:00,
2013-06-11 18:52:00,74.7,9.5,0.00,SSE,153,8.1,8.1,8,0.00,,---,0.00,VWS V14.00,2013-06-12 00:52:00,
2013-06-11 18:53:00,74.7,9.5,0.00,ESE,121,8.3,8.3,8,0.00,,---,0.00,VWS V14.00,2013-06-12 00:53:00,
2013-06-11 18:56:00,74.3,9.2,0.00,ESE,113,4.9,8.1,8,0.00,,---,0.00,VWS V14.00,2013-06-12 00:56:00,
2013-06-11 18:57:00,74.3,9.2,0.00,SE,127,3.6,4.9,8,0.00,,---,0.00,VWS V14.00,2013-06-12 00:57:00,
2013-06-11 18:58:00,74.3,9.2,0.00,ESE,104,5.8,5.8,8,0.00,,---,0.00,VWS V14.00,2013-06-12 00:58:00,
2013-06-11 19:02:00,74.1,9.1,0.00,ESE,112,8.7,14.5,8,0.00,,---,0.00,VWS V14.00,2013-06-12 01:02:00,
2013-06-11 19:03:00,73.9,9.0,0.00,ESE,122,8.7,10.5,8,0.00,,---,0.00,VWS V14.00,2013-06-12 01:03:00,
2013-06-11 19:04:00,73.9,9.0,0.00,SE,137,8.1,8.1,8,0.00,,---,0.00,VWS V14.00,2013-06-12 01:04:00,
2013-06-11 19:07:00,73.8,8.8,0.00,ESE,117,4.0,4.0,8,0.00,,---,0.00,VWS V14.00,2013-06-12 01:07:00,
2013-06-11 19:08:00,73.6,8.7,0.00,SE,132,5.8,10.5,8,0.00,,---,0.00,VWS V14.00,2013-06-12 01:08:00,
2013-06-11 19:09:00,73.6,8.7,0.00,East,80,7.6,8.1,8,0.00,,---,0.00,VWS V14.00,2013-06-12 01:09:00,
2013-06-11 19:12:00,73.4,8.6,0.00,South,173,5.8,5.8,8,0.00,,---,0.00,VWS V14.00,2013-06-12 01:12:00,
2013-06-11 19:13:00,73.2,11.1,0.00,SE,128,6.3,6.3,9,0.00,,---,0.00,VWS V14.00,2013-06-12 01:13:00,
2013-06-11 19:14:00,73.2,11.1,0.00,SSE,149,5.4,6.3,9,0.00,,---,0.00,VWS V14.00,2013-06-12 01:14:00,
2013-06-11 19:17:00,73.0,10.9,0.00,NE,49,4.0,5.4,9,0.00,,---,0.00,VWS V14.00,2013-06-12 01:17:00,
2013-06-11 19:18:00,73.0,10.9,0.00,NE,53,4.0,4.0,9,0.00,,---,0.00,VWS V14.00,2013-06-12 01:18:00,
2013-06-11 19:19:00,73.0,10.9,0.00,SE,142,5.4,8.1,9,0.00,,---,0.00,VWS V14.00,2013-06-12 01:19:00,
2013-06-11 19:22:00,72.9,10.8,0.00,ESE,122,5.4,5.8,9,0.00,,---,0.00,VWS V14.00,2013-06-12 01:22:00,
2013-06-11 19:23:00,72.9,10.8,0.00,East,83,5.8,5.8,9,0.00,,---,0.00,VWS V14.00,2013-06-12 01:23:00,
2013-06-11 19:24:00,72.7,10.6,0.00,SSE,147,8.7,8.7,9,0.00,,---,0.00,VWS V14.00,2013-06-12 01:24:00,
2013-06-11 19:27:00,72.5,10.5,0.00,ESE,123,10.1,10.1,9,0.00,,---,0.00,VWS V14.00,2013-06-12 01:27:00,
2013-06-11 19:28:00,72.5,10.5,0.00,East,93,13.2,15.0,9,0.00,,---,0.00,VWS V14.00,2013-06-12 01:28:00,
2013-06-11 19:29:00,72.3,10.4,0.00,ESE,105,4.0,7.6,9,0.00,,---,0.00,VWS V14.00,2013-06-12 01:29:00,
2013-06-11 19:32:00,72.1,10.2,0.00,ESE,122,3.1,6.3,9,0.00,,---,0.00,VWS V14.00,2013-06-12 01:32:00,
2013-06-11 19:33:00,72.1,10.2,0.00,ENE,78,5.4,5.4,9,0.00,,---,0.00,VWS V14.00,2013-06-12 01:33:00,
2013-06-11 19:34:00,72.1,10.2,0.00,NE,53,6.3,6.3,9,0.00,,---,0.00,VWS V14.00,2013-06-12 01:34:00,
2013-06-11 19:37:00,72.0,10.1,0.00,ESE,116,5.4,8.1,9,0.00,,---,0.00,VWS V14.00,2013-06-12 01:37:00,
2013-06-11 19:38:00,72.0,10.1,0.00,SE,131,8.1,8.1,9,0.00,,---,0.00,VWS V14.00,2013-06-12 01:38:00,
2013-06-11 19:39:00,71.8,10.0,0.00,SE,133,5.4,5.4,9,0.00,,---,0.00,VWS V14.00,2013-06-12 01:39:00,
2013-06-11 19:43:00,71.6,9.8,0.00,ESE,122,4.0,6.3,9,0.00,,---,0.00,VWS V14.00,2013-06-12 01:43:00,
2013-06-11 19:44:00,71.6,9.8,0.00,SE,141,8.1,8.1,9,0.00,,---,0.00,VWS V14.00,2013-06-12 01:44:00,
2013-06-11 19:48:00,71.2,9.6,0.00,ESE,107,5.4,5.8,9,0.00,,---,0.00,VWS V14.00,2013-06-12 01:48:00,
2013-06-11 19:49:00,71.1,9.4,0.00,ESE,109,4.0,5.8,9,0.00,,---,0.00,VWS V14.00,2013-06-12 01:49:00,
2013-06-11 19:53:00,70.9,9.3,0.00,ESE,122,8.1,8.1,9,0.00,,---,0.00,VWS V14.00,2013-06-12 01:53:00,
2013-06-11 19:54:00,70.9,9.3,0.00,ESE,117,7.6,7.6,9,0.00,,---,0.00,VWS V14.00,2013-06-12 01:54:00,
2013-06-11 19:58:00,70.5,15.5,0.00,ESE,114,5.8,10.5,12,0.00,,---,0.00,VWS V14.00,2013-06-12 01:58:00,
2013-06-11 19:59:00,70.5,15.5,0.00,SE,127,6.3,6.3,12,0.00,,---,0.00,VWS V14.00,2013-06-12 01:59:00,
2013-06-11 20:03:00,70.2,15.2,0.00,ESE,120,2.2,4.9,12,0.00,,---,0.00,VWS V14.00,2013-06-12 02:03:00,
2013-06-11 20:04:00,70.2,15.2,0.00,SE,139,4.0,5.4,12,0.00,,---,0.00,VWS V14.00,2013-06-12 02:04:00,
2013-06-11 20:08:00,69.8,14.9,0.00,ESE,120,6.3,8.7,12,0.00,,---,0.00,VWS V14.00,2013-06-12 02:08:00,
2013-06-11 20:09:00,69.8,14.9,0.00,ESE,109,5.8,7.6,12,0.00,,---,0.00,VWS V14.00,2013-06-12 02:09:00,
2013-06-11 20:10:00,69.6,14.8,0.00,ENE,73,4.0,4.0,12,0.00,,---,0.00,VWS V14.00,2013-06-12 02:10:00,
2013-06-11 20:13:00,69.4,14.6,0.00,ESE,121,4.0,5.8,12,0.00,,---,0.00,VWS V14.00,2013-06-12 02:13:00,
2013-06-11 20:14:00,69.4,14.6,0.00,East,95,5.4,5.4,12,0.00,,---,0.00,VWS V14.00,2013-06-12 02:14:00,
2013-06-11 20:15:00,69.3,14.5,0.00,ESE,110,6.3,6.3,12,0.00,,---,0.00,VWS V14.00,2013-06-12 02:15:00,
2013-06-11 20:18:00,69.1,14.4,0.00,East,88,8.7,8.7,12,0.00,,---,0.00,VWS V14.00,2013-06-12 02:18:00,
2013-06-11 20:19:00,69.1,14.4,0.00,East,88,8.1,10.1,12,0.00,,---,0.00,VWS V14.00,2013-06-12 02:19:00,
2013-06-11 20:20:00,69.1,14.4,0.00,SE,125,3.6,8.1,12,0.00,,---,0.00,VWS V14.00,2013-06-12 02:20:00,
2013-06-11 20:23:00,68.9,14.2,0.00,ESE,108,3.1,8.1,12,0.00,,---,0.00,VWS V14.00,2013-06-12 02:23:00,
2013-06-11 20:24:00,68.7,14.1,0.00,SE,146,4.9,5.4,12,0.00,,---,0.00,VWS V14.00,2013-06-12 02:24:00,
2013-06-11 20:25:00,68.7,14.1,0.00,SE,124,3.1,4.0,12,0.00,,---,0.00,VWS V14.00,2013-06-12 02:25:00,
2013-06-11 20:28:00,68.5,13.9,0.00,SSE,147,5.4,8.1,12,0.00,,---,0.00,VWS V14.00,2013-06-12 02:28:00,
2013-06-11 20:29:00,68.5,13.9,0.00,ESE,115,10.5,10.5,12,0.00,,---,0.00,VWS V14.00,2013-06-12 02:29:00,
2013-06-11 20:30:00,68.4,13.8,0.00,SE,144,4.0,4.0,12,0.00,,---,0.00,VWS V14.00,2013-06-12 02:30:00,
2013-06-11 20:33:00,68.2,13.7,0.00,ESE,119,5.4,15.4,12,0.00,,---,0.00,VWS V14.00,2013-06-12 02:33:00,
2013-06-11 20:34:00,68.2,13.7,0.00,SE,142,8.7,8.7,12,0.00,,---,0.00,VWS V14.00,2013-06-12 02:34:00,
2013-06-11 20:35:00,68.2,13.7,0.00,ENE,65,7.6,7.6,12,0.00,,---,0.00,VWS V14.00,2013-06-12 02:35:00,
2013-06-11 20:36:00,68.0,13.5,0.00,SE,127,5.4,5.4,12,0.00,,---,0.00,VWS V14.00,2013-06-12 02:36:00,
2013-06-11 20:38:00,68.0,13.5,0.00,SE,126,5.4,6.3,12,0.00,,---,0.00,VWS V14.00,2013-06-12 02:38:00,
2013-06-11 20:39:00,67.8,13.4,0.00,East,90,4.0,5.8,12,0.00,,---,0.00,VWS V14.00,2013-06-12 02:39:00,
2013-06-11 20:40:00,67.8,13.4,0.00,SSE,147,4.0,4.0,12,0.00,,---,0.00,VWS V14.00,2013-06-12 02:40:00,
2013-06-11 20:41:00,67.8,13.4,0.00,East,82,4.0,6.3,12,0.00,,---,0.00,VWS V14.00,2013-06-12 02:41:00,
2013-06-11 20:44:00,67.6,13.2,0.00,ESE,114,8.1,8.1,12,0.00,,---,0.00,VWS V14.00,2013-06-12 02:44:00,
2013-06-11 20:45:00,67.5,13.1,0.00,East,83,4.9,8.1,12,0.00,,---,0.00,VWS V14.00,2013-06-12 02:45:00,
2013-06-11 20:46:00,67.5,13.1,0.00,ENE,76,4.5,5.8,12,0.00,,---,0.00,VWS V14.00,2013-06-12 02:46:00,
2013-06-11 20:49:00,67.3,13.0,0.00,ESE,107,5.8,6.3,12,0.00,,---,0.00,VWS V14.00,2013-06-12 02:49:00,
2013-06-11 20:50:00,67.3,13.0,0.00,ESE,111,3.1,4.9,12,0.00,,---,0.00,VWS V14.00,2013-06-12 02:50:00,
2013-06-11 20:51:00,67.3,13.0,0.00,SE,127,5.4,8.1,12,0.00,,---,0.00,VWS V14.00,2013-06-12 02:51:00,
2013-06-11 20:54:00,67.1,12.8,0.00,East,96,8.1,8.1,12,0.00,,---,0.00,VWS V14.00,2013-06-12 02:54:00,
2013-06-11 20:55:00,67.1,12.8,0.00,NE,50,9.6,9.6,12,0.00,,---,0.00,VWS V14.00,2013-06-12 02:55:00,
2013-06-11 20:56:00,67.1,12.8,0.00,East,87,10.1,10.1,12,0.00,,---,0.00,VWS V14.00,2013-06-12 02:56:00,
2013-06-11 20:59:00,66.9,12.7,0.00,SE,125,2.7,6.3,12,0.00,,---,0.00,VWS V14.00,2013-06-12 02:59:00,
2013-06-11 21:00:00,66.9,12.7,0.00,ESE,104,2.7,5.8,12,0.00,,---,0.00,VWS V14.00,2013-06-12 03:00:00,
2013-06-11 21:01:00,66.9,12.7,0.00,ESE,110,4.9,6.3,12,0.00,,---,0.00,VWS V14.00,2013-06-12 03:01:00,
2013-06-11 21:04:00,66.7,12.5,0.00,SSE,149,3.6,3.6,12,0.00,,---,0.00,VWS V14.00,2013-06-12 03:04:00,
2013-06-11 21:05:00,66.7,12.5,0.00,SE,139,5.4,5.8,12,0.00,,---,0.00,VWS V14.00,2013-06-12 03:05:00,
2013-06-11 21:06:00,66.6,12.4,0.00,ENE,70,4.0,5.4,12,0.00,,---,0.00,VWS V14.00,2013-06-12 03:06:00,
2013-06-11 21:09:00,66.6,12.4,0.00,SSE,150,3.1,3.1,12,0.00,,---,0.00,VWS V14.00,2013-06-12 03:09:00,
2013-06-11 21:10:00,66.6,12.4,0.00,ENE,59,3.6,3.6,12,0.00,,---,0.00,VWS V14.00,2013-06-12 03:10:00,
2013-06-11 21:11:00,66.4,12.3,0.00,North,4,0.0,3.6,12,0.00,,---,0.00,VWS V14.00,2013-06-12 03:11:00,
2013-06-11 21:12:00,66.4,12.3,0.00,SSE,149,3.1,3.1,12,0.00,,---,0.00,VWS V14.00,2013-06-12 03:12:00,
2013-06-11 21:14:00,66.4,12.3,0.00,ENE,72,0.0,3.6,12,0.00,,---,0.00,VWS V14.00,2013-06-12 03:14:00,
2013-06-11 21:15:00,66.2,12.1,0.00,ENE,72,0.0,0.0,12,0.00,,---,0.00,VWS V14.00,2013-06-12 03:15:00,
2013-06-11 21:17:00,66.2,12.1,0.00,ESE,110,0.0,0.0,12,0.00,,---,0.00,VWS V14.00,2013-06-12 03:17:00,
2013-06-11 21:19:00,66.0,13.8,0.00,East,82,0.0,4.9,13,0.00,,---,0.00,VWS V14.00,2013-06-12 03:19:00,
2013-06-11 21:20:00,66.0,13.8,0.00,East,87,0.0,0.0,13,0.00,,---,0.00,VWS V14.00,2013-06-12 03:20:00,
2013-06-11 21:21:00,66.0,13.8,0.00,East,88,3.6,3.6,13,0.00,,---,0.00,VWS V14.00,2013-06-12 03:21:00,
2013-06-11 21:22:00,66.0,13.8,0.00,ESE,104,4.0,4.0,13,0.00,,---,0.00,VWS V14.00,2013-06-12 03:22:00,
2013-06-11 21:25:00,66.0,13.8,0.00,East,93,4.0,4.0,13,0.00,,---,0.00,VWS V14.00,2013-06-12 03:25:00,
2013-06-11 21:26:00,65.8,13.6,0.00,ESE,112,0.0,3.6,13,0.00,,---,0.00,VWS V14.00,2013-06-12 03:26:00,
2013-06-11 21:27:00,65.8,13.6,0.00,ESE,116,0.0,2.7,13,0.00,,---,0.00,VWS V14.00,2013-06-12 03:27:00,
2013-06-11 21:30:00,65.7,13.5,0.00,ENE,76,2.7,2.7,13,0.00,,---,0.00,VWS V14.00,2013-06-12 03:30:00,
2013-06-11 21:31:00,65.7,13.5,0.00,ENE,75,0.0,2.7,13,0.00,,---,0.00,VWS V14.00,2013-06-12 03:31:00,
2013-06-11 21:32:00,65.7,13.5,0.00,SE,131,2.7,2.7,13,0.00,,---,0.00,VWS V14.00,2013-06-12 03:32:00,
2013-06-11 21:35:00,65.5,13.4,0.00,ESE,111,0.0,3.6,13,0.00,,---,0.00,VWS V14.00,2013-06-12 03:35:00,
2013-06-11 21:36:00,65.5,13.4,0.00,NE,55,0.0,2.7,13,0.00,,---,0.00,VWS V14.00,2013-06-12 03:36:00,
2013-06-11 21:37:00,65.5,13.4,0.00,ESE,118,3.6,5.8,13,0.00,,---,0.00,VWS V14.00,2013-06-12 03:37:00,
2013-06-11 21:40:00,65.3,13.2,0.00,SSW,205,0.0,4.0,13,0.00,,---,0.00,VWS V14.00,2013-06-12 03:40:00,
2013-06-11 21:41:00,65.3,13.2,0.00,SSE,168,2.7,2.7,13,0.00,,---,0.00,VWS V14.00,2013-06-12 03:41:00,
2013-06-11 21:42:00,65.3,13.2,0.00,NE,53,4.9,4.9,13,0.00,,---,0.00,VWS V14.00,2013-06-12 03:42:00,
2013-06-11 21:43:00,65.3,13.2,0.00,East,94,0.0,2.7,13,0.00,,---,0.00,VWS V14.00,2013-06-12 03:43:00,
2013-06-11 21:45:00,65.1,13.1,0.00,SSE,162,0.0,4.9,13,0.00,,---,0.00,VWS V14.00,2013-06-12 03:45:00,
2013-06-11 21:46:00,65.1,13.1,0.00,SSE,153,0.0,0.0,13,0.00,,---,0.00,VWS V14.00,2013-06-12 03:46:00,
2013-06-11 21:47:00,65.1,13.1,0.00,SSE,151,0.0,0.0,13,0.00,,---,0.00,VWS V14.00,2013-06-12 03:47:00,
2013-06-11 21:48:00,65.1,13.1,0.00,SSE,152,0.0,0.0,13,0.00,,---,0.00,VWS V14.00,2013-06-12 03:48:00,
2013-06-11 21:50:00,64.9,12.9,0.00,SE,142,0.0,0.0,13,0.00,,---,0.00,VWS V14.00,2013-06-12 03:50:00,
2013-06-11 21:52:00,64.8,12.8,0.00,SE,139,0.0,0.0,13,0.00,,---,0.00,VWS V14.00,2013-06-12 03:52:00,
2013-06-11 21:53:00,64.8,12.8,0.00,WNW,284,0.0,0.0,13,0.00,,---,0.00,VWS V14.00,2013-06-12 03:53:00,
2013-06-11 21:56:00,64.6,12.7,0.00,WNW,287,0.0,0.0,13,0.00,,---,0.00,VWS V14.00,2013-06-12 03:56:00,
2013-06-11 21:57:00,64.6,12.7,0.00,WNW,287,0.0,0.0,13,0.00,,---,0.00,VWS V14.00,2013-06-12 03:57:00,
2013-06-11 21:58:00,64.6,12.7,0.00,West,259,0.0,0.0,13,0.00,,---,0.00,VWS V14.00,2013-06-12 03:58:00,
2013-06-11 22:01:00,64.4,12.5,0.00,East,93,3.1,3.1,13,0.00,,---,0.00,VWS V14.00,2013-06-12 04:01:00,
2013-06-11 22:06:00,64.2,12.4,0.00,ESE,106,2.7,2.7,13,0.00,,---,0.00,VWS V14.00,2013-06-12 04:06:00,
2013-06-11 22:11:00,63.9,12.1,0.00,West,280,0.0,0.0,13,0.00,,---,0.00,VWS V14.00,2013-06-12 04:11:00,
2013-06-11 22:12:00,63.9,12.1,0.00,West,280,0.0,0.0,13,0.00,,---,0.00,VWS V14.00,2013-06-12 04:12:00,
2013-06-11 22:16:00,63.7,11.9,0.00,West,262,0.0,0.0,13,0.00,,---,0.00,VWS V14.00,2013-06-12 04:16:00,
2013-06-11 22:17:00,63.7,11.9,0.00,West,262,0.0,0.0,13,0.00,,---,0.00,VWS V14.00,2013-06-12 04:17:00,
2013-06-11 22:21:00,63.5,11.8,0.00,NW,315,0.0,4.0,13,0.00,,---,0.00,VWS V14.00,2013-06-12 04:21:00,
2013-06-11 22:22:00,63.3,11.7,0.00,WNW,286,0.0,0.0,13,0.00,,---,0.00,VWS V14.00,2013-06-12 04:22:00,
2013-06-11 22:27:00,63.1,11.5,0.00,SW,230,0.0,0.0,13,0.00,,---,0.00,VWS V14.00,2013-06-12 04:27:00,
2013-06-11 22:32:00,63.0,11.4,0.00,ESE,111,4.5,6.3,13,0.00,,---,0.00,VWS V14.00,2013-06-12 04:32:00,
2013-06-11 22:37:00,62.8,11.2,0.00,South,177,0.0,0.0,13,0.00,,---,0.00,VWS V14.00,2013-06-12 04:37:00,
2013-06-11 22:38:00,62.8,11.2,0.00,ESE,118,0.0,2.7,13,0.00,,---,0.00,VWS V14.00,2013-06-12 04:38:00,
2013-06-11 22:42:00,62.6,11.1,0.00,SE,136,0.0,3.1,13,0.00,,---,0.00,VWS V14.00,2013-06-12 04:42:00,
2013-06-11 22:43:00,62.6,11.1,0.00,ESE,116,0.0,3.1,13,0.00,,---,0.00,VWS V14.00,2013-06-12 04:43:00,
2013-06-11 22:47:00,62.6,11.1,0.00,ENE,57,8.1,8.1,13,0.00,,---,0.00,VWS V14.00,2013-06-12 04:47:00,
2013-06-11 22:48:00,62.4,12.6,0.00,ENE,69,2.7,4.0,14,0.00,,---,0.00,VWS V14.00,2013-06-12 04:48:00,
2013-06-11 22:52:00,62.4,12.6,0.00,ESE,120,0.0,0.0,14,0.00,,---,0.00,VWS V14.00,2013-06-12 04:52:00,
2013-06-11 22:53:00,62.4,12.6,0.00,ESE,117,2.7,2.7,14,0.00,,---,0.00,VWS V14.00,2013-06-12 04:53:00,
2013-06-11 22:57:00,62.2,12.5,0.00,ESE,104,0.0,0.0,14,0.00,,---,0.00,VWS V14.00,2013-06-12 04:57:00,
2013-06-11 22:58:00,62.2,12.5,0.00,SSE,149,0.0,0.0,14,0.00,,---,0.00,VWS V14.00,2013-06-12 04:58:00,
2013-06-11 23:03:00,62.1,12.3,0.00,NW,313,0.0,0.0,14,0.00,,---,0.00,VWS V14.00,2013-06-12 05:03:00,
2013-06-11 23:08:00,61.9,12.2,0.00,East,91,4.0,4.9,14,0.00,,---,0.00,VWS V14.00,2013-06-12 05:08:00,
2013-06-11 23:09:00,61.9,12.2,0.00,NE,43,3.1,3.1,14,0.00,,---,0.00,VWS V14.00,2013-06-12 05:09:00,
2013-06-11 23:13:00,61.7,12.1,0.00,East,92,3.1,4.9,14,0.00,,---,0.00,VWS V14.00,2013-06-12 05:13:00,
2013-06-11 23:14:00,61.7,12.1,0.00,East,94,4.0,4.9,14,0.00,,---,0.00,VWS V14.00,2013-06-12 05:14:00,
2013-06-11 23:18:00,61.5,11.9,0.00,East,85,3.1,6.3,14,0.00,,---,0.00,VWS V14.00,2013-06-12 05:18:00,
2013-06-11 23:19:00,61.5,11.9,0.00,East,86,2.7,7.2,14,0.00,,---,0.00,VWS V14.00,2013-06-12 05:19:00,
2013-06-11 23:23:00,61.5,11.9,0.00,ESE,102,5.4,8.7,14,0.00,,---,0.00,VWS V14.00,2013-06-12 05:23:00,
2013-06-11 23:24:00,61.3,11.8,0.00,SE,139,3.6,6.3,14,0.00,,---,0.00,VWS V14.00,2013-06-12 05:24:00,
2013-06-11 23:28:00,61.3,11.8,0.00,East,82,3.1,8.1,14,0.00,,---,0.00,VWS V14.00,2013-06-12 05:28:00,
2013-06-11 23:29:00,61.3,11.8,0.00,SSE,147,2.7,3.1,14,0.00,,---,0.00,VWS V14.00,2013-06-12 05:29:00,
2013-06-11 23:33:00,61.3,11.8,0.00,East,95,8.1,8.1,14,0.00,,---,0.00,VWS V14.00,2013-06-12 05:33:00,
2013-06-11 23:35:00,61.3,11.8,0.00,NE,42,11.0,11.0,14,0.00,,---,0.00,VWS V14.00,2013-06-12 05:35:00,
2013-06-11 23:38:00,61.3,11.8,0.00,South,170,2.2,4.0,14,0.00,,---,0.00,VWS V14.00,2013-06-12 05:38:00,
2013-06-11 23:39:00,61.3,11.8,0.00,ESE,118,3.6,3.6,14,0.00,,---,0.00,VWS V14.00,2013-06-12 05:39:00,
2013-06-11 23:40:00,61.3,11.8,0.00,SE,146,4.0,4.0,14,0.00,,---,0.00,VWS V14.00,2013-06-12 05:40:00,
2013-06-11 23:43:00,61.2,11.6,0.00,SSE,166,5.4,5.4,14,0.00,,---,0.00,VWS V14.00,2013-06-12 05:43:00,
2013-06-11 23:44:00,61.2,11.6,0.00,SE,143,3.6,5.4,14,0.00,,---,0.00,VWS V14.00,2013-06-12 05:44:00,
2013-06-11 23:45:00,61.2,11.6,0.00,SE,135,5.4,5.4,14,0.00,,---,0.00,VWS V14.00,2013-06-12 05:45:00,
2013-06-11 23:49:00,61.2,11.6,0.00,East,83,5.4,9.2,14,0.00,,---,0.00,VWS V14.00,2013-06-12 05:49:00,
2013-06-11 23:50:00,61.2,11.6,0.00,ESE,108,4.9,7.6,14,0.00,,---,0.00,VWS V14.00,2013-06-12 05:50:00,
2013-06-11 23:54:00,61.2,11.6,0.00,East,87,3.6,5.8,14,0.00,,---,0.00,VWS V14.00,2013-06-12 05:54:00,
2013-06-11 23:56:00,61.2,11.6,0.00,SE,128,6.3,8.3,14,0.00,,---,0.00,VWS V14.00,2013-06-12 05:56:00,
2013-06-11 23:59:00,61.2,11.6,0.00,ENE,58,3.1,4.0,14,0.00,,---,0.00,VWS V14.00,2013-06-12 05:59:00,